Time,TemperatureF,DewpointF,PressureIn,WindDirection,WindDirectionDegrees,WindSpeedMPH,WindSpeedGustMPH,Humidity,HourlyPrecipIn,Conditions,Clouds,dailyrainin,SoftwareType,DateUTC
2013-09-01 00:00:00,76.7,70.4,29.85,South,183,0.0,1.0,81,0.00,,,0.00,Wunderground v.1.15,2013-09-01 04:00:00,
2013-09-01 00:01:00,76.7,70.4,29.85,South,183,0.0,1.0,81,0.00,,,0.00,Wunderground v.1.15,2013-09-01 04:01:00,
2013-09-01 00:06:00,76.7,70.4,29.85,SE,138,0.0,1.0,81,0.00,,,0.00,Wunderground v.1.15,2013-09-01 04:06:00,
2013-09-01 00:07:00,76.7,70.4,29.85,SE,138,0.0,1.0,81,0.00,,,0.00,Wunderground v.1.15,2013-09-01 04:07:00,
2013-09-01 00:11:00,76.5,70.2,29.84,SE,138,0.0,1.0,81,0.00,,,0.00,Wunderground v.1.15,2013-09-01 04:11:00,
2013-09-01 00:13:00,76.5,70.2,29.84,SE,138,0.0,0.0,81,0.00,,,0.00,Wunderground v.1.15,2013-09-01 04:13:00,
2013-09-01 00:14:00,76.5,70.2,29.85,SE,138,0.0,0.0,81,0.00,,,0.00,Wunderground v.1.15,2013-09-01 04:14:00,
2013-09-01 00:20:00,76.5,70.2,29.84,SW,225,0.0,1.0,81,0.00,,,0.00,Wunderground v.1.15,2013-09-01 04:20:00,
2013-09-01 00:22:00,76.5,70.2,29.84,SSE,148,2.0,2.0,81,0.00,,,0.00,Wunderground v.1.15,2013-09-01 04:22:00,
2013-09-01 00:24:00,76.5,70.2,29.84,SSE,150,0.0,2.0,81,0.00,,,0.00,Wunderground v.1.15,2013-09-01 04:24:00,
2013-09-01 00:27:00,76.5,70.2,29.84,ESE,103,0.0,2.0,81,0.00,,,0.00,Wunderground v.1.15,2013-09-01 04:27:00,
2013-09-01 00:31:00,76.5,70.2,29.84,WSW,250,0.0,2.0,81,0.00,,,0.00,Wunderground v.1.15,2013-09-01 04:31:00,
2013-09-01 00:32:00,76.5,70.2,29.84,WSW,250,0.0,1.0,81,0.00,,,0.00,Wunderground v.1.15,2013-09-01 04:32:00,
2013-09-01 00:36:00,76.3,70.0,29.84,SSE,155,0.0,3.0,81,0.00,,,0.00,Wunderground v.1.15,2013-09-01 04:36:00,
2013-09-01 00:38:00,76.3,70.0,29.85,SSE,155,0.0,3.0,81,0.00,,,0.00,Wunderground v.1.15,2013-09-01 04:38:00,
2013-09-01 00:39:00,76.3,70.0,29.85,SSE,155,0.0,3.0,81,0.00,,,0.00,Wunderground v.1.15,2013-09-01 04:39:00,
2013-09-01 00:41:00,76.3,70.0,29.85,South,180,2.0,3.0,81,0.00,,,0.00,Wunderground v.1.15,2013-09-01 04:41:00,
2013-09-01 00:45:00,76.3,70.0,29.85,SE,126,0.0,2.0,81,0.00,,,0.00,Wunderground v.1.15,2013-09-01 04:45:00,
2013-09-01 00:47:00,76.3,70.0,29.85,SE,132,0.0,2.0,81,0.00,,,0.00,Wunderground v.1.15,2013-09-01 04:47:00,
2013-09-01 00:49:00,76.3,70.0,29.84,SE,132,0.0,2.0,81,0.00,,,0.00,Wunderground v.1.15,2013-09-01 04:49:00,
2013-09-01 00:52:00,76.3,70.0,29.84,WNW,302,0.0,0.0,81,0.00,,,0.00,Wunderground v.1.15,2013-09-01 04:52:00,
2013-09-01 00:53:00,76.1,69.8,29.84,NW,307,0.0,0.0,81,0.00,,,0.00,Wunderground v.1.15,2013-09-01 04:53:00,
2013-09-01 00:55:00,76.1,69.8,29.84,WNW,284,1.0,1.0,81,0.00,,,0.00,Wunderground v.1.15,2013-09-01 04:55:00,
2013-09-01 00:58:00,76.1,69.8,29.84,WNW,284,0.0,1.0,81,0.00,,,0.00,Wunderground v.1.15,2013-09-01 04:58:00,
2013-09-01 01:00:00,76.1,69.8,29.84,WNW,284,0.0,1.0,81,0.00,,,0.00,Wunderground v.1.15,2013-09-01 05:00:00,
2013-09-01 01:03:00,76.1,69.8,29.84,WNW,284,0.0,0.0,81,0.00,,,0.00,Wunderground v.1.15,2013-09-01 05:03:00,
2013-09-01 01:05:00,76.0,69.7,29.84,WNW,284,0.0,0.0,81,0.00,,,0.00,Wunderground v.1.15,2013-09-01 05:05:00,
2013-09-01 01:07:00,76.0,69.7,29.84,WNW,284,0.0,0.0,81,0.00,,,0.00,Wunderground v.1.15,2013-09-01 05:07:00,
2013-09-01 01:08:00,76.0,69.7,29.84,WNW,284,0.0,0.0,81,0.00,,,0.00,Wunderground v.1.15,2013-09-01 05:08:00,
2013-09-01 01:11:00,76.0,69.7,29.84,WNW,284,0.0,0.0,81,0.00,,,0.00,Wunderground v.1.15,2013-09-01 05:11:00,
2013-09-01 01:13:00,76.0,69.7,29.84,SE,142,0.0,0.0,81,0.00,,,0.00,Wunderground v.1.15,2013-09-01 05:13:00,
2013-09-01 01:14:00,76.0,69.7,29.84,SE,142,0.0,0.0,81,0.00,,,0.00,Wunderground v.1.15,2013-09-01 05:14:00,
2013-09-01 01:15:00,76.0,69.7,29.84,SE,142,0.0,0.0,81,0.00,,,0.00,Wunderground v.1.15,2013-09-01 05:15:00,
2013-09-01 01:16:00,76.0,69.7,29.84,SE,143,0.0,0.0,81,0.00,,,0.00,Wunderground v.1.15,2013-09-01 05:16:00,
2013-09-01 01:20:00,75.8,69.6,29.84,WNW,288,5.0,5.0,81,0.00,,,0.00,Wunderground v.1.15,2013-09-01 05:20:00,
2013-09-01 01:21:00,75.8,69.6,29.84,WNW,286,0.0,5.0,81,0.00,,,0.00,Wunderground v.1.15,2013-09-01 05:21:00,
2013-09-01 01:22:00,75.8,69.6,29.84,WNW,286,0.0,0.0,81,0.00,,,0.00,Wunderground v.1.15,2013-09-01 05:22:00,
2013-09-01 01:24:00,75.8,69.6,29.85,West,267,0.0,0.0,81,0.00,,,0.00,Wunderground v.1.15,2013-09-01 05:24:00,
2013-09-01 01:27:00,75.8,69.6,29.85,West,267,0.0,0.0,81,0.00,,,0.00,Wunderground v.1.15,2013-09-01 05:27:00,
2013-09-01 01:28:00,75.8,69.6,29.85,West,267,0.0,0.0,81,0.00,,,0.00,Wunderground v.1.15,2013-09-01 05:28:00,
2013-09-01 01:30:00,75.6,69.4,29.85,West,267,2.0,2.0,81,0.00,,,0.00,Wunderground v.1.15,2013-09-01 05:30:00,
2013-09-01 01:32:00,75.6,69.7,29.84,West,267,0.0,0.0,82,0.00,,,0.00,Wunderground v.1.15,2013-09-01 05:32:00,
2013-09-01 01:35:00,75.6,69.4,29.84,SSE,166,0.0,0.0,81,0.00,,,0.00,Wunderground v.1.15,2013-09-01 05:35:00,
2013-09-01 01:36:00,75.6,69.7,29.84,SSE,166,0.0,0.0,82,0.00,,,0.00,Wunderground v.1.15,2013-09-01 05:36:00,
2013-09-01 01:38:00,75.6,69.7,29.84,SSE,166,0.0,0.0,82,0.00,,,0.00,Wunderground v.1.15,2013-09-01 05:38:00,
2013-09-01 01:40:00,75.4,69.5,29.84,SSE,166,0.0,0.0,82,0.00,,,0.00,Wunderground v.1.15,2013-09-01 05:40:00,
2013-09-01 01:41:00,75.4,69.5,29.84,South,173,0.0,0.0,82,0.00,,,0.00,Wunderground v.1.15,2013-09-01 05:41:00,
2013-09-01 01:42:00,75.4,69.5,29.84,South,173,0.0,0.0,82,0.00,,,0.00,Wunderground v.1.15,2013-09-01 05:42:00,
2013-09-01 01:44:00,75.4,69.5,29.84,South,173,0.0,0.0,82,0.00,,,0.00,Wunderground v.1.15,2013-09-01 05:44:00,
2013-09-01 01:46:00,75.4,69.5,29.84,SSW,205,0.0,0.0,82,0.00,,,0.00,Wunderground v.1.15,2013-09-01 05:46:00,
2013-09-01 01:49:00,75.4,69.5,29.84,SSW,205,0.0,0.0,82,0.00,,,0.00,Wunderground v.1.15,2013-09-01 05:49:00,
2013-09-01 01:50:00,75.4,69.5,29.84,SSW,205,0.0,0.0,82,0.00,,,0.00,Wunderground v.1.15,2013-09-01 05:50:00,
2013-09-01 01:51:00,75.4,69.5,29.84,SSW,205,0.0,0.0,82,0.00,,,0.00,Wunderground v.1.15,2013-09-01 05:51:00,
2013-09-01 01:52:00,75.4,69.5,29.84,SSW,205,0.0,0.0,82,0.00,,,0.00,Wunderground v.1.15,2013-09-01 05:52:00,
2013-09-01 01:55:00,75.3,69.4,29.84,SSW,205,0.0,0.0,82,0.00,,,0.00,Wunderground v.1.15,2013-09-01 05:55:00,
2013-09-01 01:56:00,75.3,69.4,29.84,SSW,205,0.0,0.0,82,0.00,,,0.00,Wunderground v.1.15,2013-09-01 05:56:00,
2013-09-01 01:57:00,75.3,69.4,29.84,SSW,205,0.0,0.0,82,0.00,,,0.00,Wunderground v.1.15,2013-09-01 05:57:00,
2013-09-01 01:59:00,75.3,69.4,29.84,SSW,205,0.0,0.0,82,0.00,,,0.00,Wunderground v.1.15,2013-09-01 05:59:00,
2013-09-01 02:01:00,75.1,69.2,29.84,SSW,205,0.0,0.0,82,0.00,,,0.00,Wunderground v.1.15,2013-09-01 06:01:00,
2013-09-01 02:02:00,75.1,69.6,29.83,SSW,205,0.0,0.0,83,0.00,,,0.00,Wunderground v.1.15,2013-09-01 06:02:00,
2013-09-01 02:03:00,75.1,69.6,29.84,SSW,205,1.0,1.0,83,0.00,,,0.00,Wunderground v.1.15,2013-09-01 06:03:00,
2013-09-01 02:04:00,75.1,69.6,29.84,NW,317,0.0,3.0,83,0.00,,,0.00,Wunderground v.1.15,2013-09-01 06:04:00,
2013-09-01 02:06:00,75.1,69.6,29.83,West,269,0.0,3.0,83,0.00,,,0.00,Wunderground v.1.15,2013-09-01 06:06:00,
2013-09-01 02:08:00,75.1,69.6,29.83,West,269,0.0,3.0,83,0.00,,,0.00,Wunderground v.1.15,2013-09-01 06:08:00,
2013-09-01 02:09:00,74.9,69.4,29.83,West,269,0.0,3.0,83,0.00,,,0.00,Wunderground v.1.15,2013-09-01 06:09:00,
2013-09-01 02:10:00,74.9,69.4,29.83,West,269,0.0,3.0,83,0.00,,,0.00,Wunderground v.1.15,2013-09-01 06:10:00,
2013-09-01 02:11:00,74.9,69.4,29.83,West,269,0.0,3.0,83,0.00,,,0.00,Wunderground v.1.15,2013-09-01 06:11:00,
2013-09-01 02:13:00,74.9,69.4,29.83,West,269,0.0,0.0,83,0.00,,,0.00,Wunderground v.1.15,2013-09-01 06:13:00,
2013-09-01 02:14:00,74.9,69.4,29.83,West,269,0.0,0.0,83,0.00,,,0.00,Wunderground v.1.15,2013-09-01 06:14:00,
2013-09-01 02:15:00,74.9,69.4,29.83,West,269,0.0,1.0,83,0.00,,,0.00,Wunderground v.1.15,2013-09-01 06:15:00,
2013-09-01 02:16:00,74.7,69.2,29.83,West,269,0.0,1.0,83,0.00,,,0.00,Wunderground v.1.15,2013-09-01 06:16:00,
2013-09-01 02:19:00,74.7,69.2,29.83,WSW,250,0.0,1.0,83,0.00,,,0.00,Wunderground v.1.15,2013-09-01 06:19:00,
2013-09-01 02:20:00,74.7,69.2,29.83,WSW,250,0.0,1.0,83,0.00,,,0.00,Wunderground v.1.15,2013-09-01 06:20:00,
2013-09-01 02:21:00,74.7,69.5,29.83,WSW,250,0.0,1.0,84,0.00,,,0.00,Wunderground v.1.15,2013-09-01 06:21:00,
2013-09-01 02:24:00,74.7,69.5,29.83,WSW,250,0.0,1.0,84,0.00,,,0.00,Wunderground v.1.15,2013-09-01 06:24:00,
2013-09-01 02:25:00,74.7,69.5,29.83,WSW,250,0.0,1.0,84,0.00,,,0.00,Wunderground v.1.15,2013-09-01 06:25:00,
2013-09-01 02:27:00,74.7,69.5,29.83,WSW,250,0.0,1.0,84,0.00,,,0.00,Wunderground v.1.15,2013-09-01 06:27:00,
2013-09-01 02:29:00,74.6,69.4,29.83,WSW,250,0.0,1.0,84,0.00,,,0.00,Wunderground v.1.15,2013-09-01 06:29:00,
2013-09-01 02:30:00,74.6,69.4,29.83,WSW,250,0.0,1.0,84,0.00,,,0.00,Wunderground v.1.15,2013-09-01 06:30:00,
2013-09-01 02:31:00,74.6,69.4,29.83,WSW,250,0.0,1.0,84,0.00,,,0.00,Wunderground v.1.15,2013-09-01 06:31:00,
2013-09-01 02:32:00,74.6,69.4,29.83,WSW,250,0.0,0.0,84,0.00,,,0.00,Wunderground v.1.15,2013-09-01 06:32:00,
2013-09-01 02:35:00,74.6,69.8,29.83,WSW,250,0.0,0.0,85,0.00,,,0.00,Wunderground v.1.15,2013-09-01 06:35:00,
2013-09-01 02:36:00,74.6,69.8,29.83,WSW,250,0.0,0.0,85,0.00,,,0.00,Wunderground v.1.15,2013-09-01 06:36:00,
2013-09-01 02:37:00,74.6,69.8,29.83,WSW,250,0.0,0.0,85,0.00,,,0.00,Wunderground v.1.15,2013-09-01 06:37:00,
2013-09-01 02:40:00,74.6,69.8,29.83,WSW,250,0.0,3.0,85,0.00,,,0.00,Wunderground v.1.15,2013-09-01 06:40:00,
2013-09-01 02:41:00,74.6,69.8,29.83,WSW,250,0.0,3.0,85,0.00,,,0.00,Wunderground v.1.15,2013-09-01 06:41:00,
2013-09-01 02:42:00,74.4,69.6,29.83,WSW,250,1.0,2.0,85,0.00,,,0.00,Wunderground v.1.15,2013-09-01 06:42:00,
2013-09-01 02:43:00,74.4,69.6,29.83,WSW,250,0.0,2.0,85,0.00,,,0.00,Wunderground v.1.15,2013-09-01 06:43:00,
2013-09-01 02:46:00,74.4,69.6,29.83,WSW,250,0.0,2.0,85,0.00,,,0.00,Wunderground v.1.15,2013-09-01 06:46:00,
2013-09-01 02:47:00,74.4,69.6,29.84,WSW,250,0.0,2.0,85,0.00,,,0.00,Wunderground v.1.15,2013-09-01 06:47:00,
2013-09-01 02:48:00,74.6,69.8,29.83,WSW,250,0.0,2.0,85,0.00,,,0.00,Wunderground v.1.15,2013-09-01 06:48:00,
2013-09-01 02:49:00,74.6,69.8,29.83,WSW,250,1.0,2.0,85,0.00,,,0.00,Wunderground v.1.15,2013-09-01 06:49:00,
2013-09-01 02:51:00,74.6,69.8,29.83,WSW,250,0.0,2.0,85,0.00,,,0.00,Wunderground v.1.15,2013-09-01 06:51:00,
2013-09-01 02:52:00,74.6,69.8,29.83,WSW,250,0.0,0.0,85,0.00,,,0.00,Wunderground v.1.15,2013-09-01 06:52:00,
2013-09-01 02:53:00,74.6,69.8,29.83,WSW,250,0.0,0.0,85,0.00,,,0.00,Wunderground v.1.15,2013-09-01 06:53:00,
2013-09-01 02:55:00,74.6,69.8,29.83,WSW,250,0.0,0.0,85,0.00,,,0.00,Wunderground v.1.15,2013-09-01 06:55:00,
2013-09-01 02:56:00,74.6,69.8,29.83,WSW,250,0.0,0.0,85,0.00,,,0.00,Wunderground v.1.15,2013-09-01 06:56:00,
2013-09-01 02:58:00,74.6,69.8,29.83,WSW,250,0.0,0.0,85,0.00,,,0.00,Wunderground v.1.15,2013-09-01 06:58:00,
2013-09-01 02:59:00,74.6,69.8,29.83,WSW,250,0.0,0.0,85,0.00,,,0.00,Wunderground v.1.15,2013-09-01 06:59:00,
2013-09-01 03:00:00,74.6,69.8,29.83,WSW,250,0.0,0.0,85,0.00,,,0.00,Wunderground v.1.15,2013-09-01 07:00:00,
2013-09-01 03:01:00,74.6,69.8,29.83,WSW,250,0.0,0.0,85,0.00,,,0.00,Wunderground v.1.15,2013-09-01 07:01:00,
2013-09-01 03:03:00,74.6,70.1,29.83,WSW,250,0.0,0.0,86,0.00,,,0.00,Wunderground v.1.15,2013-09-01 07:03:00,
2013-09-01 03:04:00,74.6,70.1,29.83,WSW,250,0.0,0.0,86,0.00,,,0.00,Wunderground v.1.15,2013-09-01 07:04:00,
2013-09-01 03:05:00,74.6,70.1,29.83,WSW,250,0.0,0.0,86,0.00,,,0.00,Wunderground v.1.15,2013-09-01 07:05:00,
2013-09-01 03:06:00,74.6,70.1,29.83,WSW,250,0.0,0.0,86,0.00,,,0.00,Wunderground v.1.15,2013-09-01 07:06:00,
2013-09-01 03:07:00,74.6,70.1,29.83,WSW,250,0.0,0.0,86,0.00,,,0.00,Wunderground v.1.15,2013-09-01 07:07:00,
2013-09-01 03:09:00,74.6,70.1,29.83,WSW,246,0.0,4.0,86,0.00,,,0.00,Wunderground v.1.15,2013-09-01 07:09:00,
2013-09-01 03:10:00,74.6,70.1,29.83,WSW,246,0.0,4.0,86,0.00,,,0.00,Wunderground v.1.15,2013-09-01 07:10:00,
2013-09-01 03:11:00,74.6,70.1,29.83,WSW,246,0.0,4.0,86,0.00,,,0.00,Wunderground v.1.15,2013-09-01 07:11:00,
2013-09-01 03:12:00,74.6,70.1,29.83,WSW,244,0.0,0.0,86,0.00,,,0.00,Wunderground v.1.15,2013-09-01 07:12:00,
2013-09-01 03:14:00,74.6,70.1,29.83,WSW,244,0.0,0.0,86,0.00,,,0.00,Wunderground v.1.15,2013-09-01 07:14:00,
2013-09-01 03:15:00,74.6,70.1,29.83,WSW,244,0.0,0.0,86,0.00,,,0.00,Wunderground v.1.15,2013-09-01 07:15:00,
2013-09-01 03:16:00,74.6,70.1,29.83,WSW,244,0.0,0.0,86,0.00,,,0.00,Wunderground v.1.15,2013-09-01 07:16:00,
2013-09-01 03:17:00,74.6,70.1,29.83,WSW,244,0.0,0.0,86,0.00,,,0.00,Wunderground v.1.15,2013-09-01 07:17:00,
2013-09-01 03:18:00,74.6,70.1,29.83,WSW,244,0.0,0.0,86,0.00,,,0.00,Wunderground v.1.15,2013-09-01 07:18:00,
2013-09-01 03:19:00,74.6,70.1,29.83,WSW,244,0.0,0.0,86,0.00,,,0.00,Wunderground v.1.15,2013-09-01 07:19:00,
2013-09-01 03:21:00,74.6,70.1,29.83,WSW,244,0.0,0.0,86,0.00,,,0.00,Wunderground v.1.15,2013-09-01 07:21:00,
2013-09-01 03:22:00,74.6,70.1,29.83,WSW,244,0.0,0.0,86,0.00,,,0.00,Wunderground v.1.15,2013-09-01 07:22:00,
2013-09-01 03:24:00,74.6,70.1,29.83,WSW,244,0.0,1.0,86,0.00,,,0.00,Wunderground v.1.15,2013-09-01 07:24:00,
2013-09-01 03:26:00,74.6,70.1,29.83,WSW,244,0.0,1.0,86,0.00,,,0.00,Wunderground v.1.15,2013-09-01 07:26:00,
2013-09-01 03:27:00,74.4,69.9,29.83,WSW,244,0.0,1.0,86,0.00,,,0.00,Wunderground v.1.15,2013-09-01 07:27:00,
2013-09-01 03:28:00,74.4,69.9,29.83,WSW,244,0.0,1.0,86,0.00,,,0.00,Wunderground v.1.15,2013-09-01 07:28:00,
2013-09-01 03:30:00,74.4,69.9,29.83,WSW,244,0.0,1.0,86,0.00,,,0.00,Wunderground v.1.15,2013-09-01 07:30:00,
2013-09-01 03:31:00,74.4,69.9,29.83,WSW,244,0.0,1.0,86,0.00,,,0.00,Wunderground v.1.15,2013-09-01 07:31:00,
2013-09-01 03:32:00,74.4,69.9,29.83,WSW,244,0.0,0.0,86,0.00,,,0.00,Wunderground v.1.15,2013-09-01 07:32:00,
2013-09-01 03:33:00,74.4,69.9,29.83,WSW,244,0.0,0.0,86,0.00,,,0.00,Wunderground v.1.15,2013-09-01 07:33:00,
2013-09-01 03:36:00,74.4,69.9,29.83,WSW,244,0.0,1.0,86,0.00,,,0.00,Wunderground v.1.15,2013-09-01 07:36:00,
2013-09-01 03:38:00,74.4,69.9,29.83,WSW,244,1.0,1.0,86,0.00,,,0.00,Wunderground v.1.15,2013-09-01 07:38:00,
2013-09-01 03:41:00,74.2,69.7,29.83,WSW,244,1.0,1.0,86,0.00,,,0.00,Wunderground v.1.15,2013-09-01 07:41:00,
2013-09-01 03:42:00,74.2,70.1,29.83,WSW,248,6.0,6.0,87,0.00,,,0.00,Wunderground v.1.15,2013-09-01 07:42:00,
2013-09-01 03:43:00,74.2,70.1,29.83,WSW,248,0.0,6.0,87,0.00,,,0.00,Wunderground v.1.15,2013-09-01 07:43:00,
2013-09-01 03:44:00,74.2,70.1,29.83,WSW,248,0.0,6.0,87,0.00,,,0.00,Wunderground v.1.15,2013-09-01 07:44:00,
2013-09-01 03:47:00,74.2,70.1,29.83,WSW,248,0.0,6.0,87,0.00,,,0.00,Wunderground v.1.15,2013-09-01 07:47:00,
2013-09-01 03:48:00,74.2,70.1,29.83,WSW,248,0.0,6.0,87,0.00,,,0.00,Wunderground v.1.15,2013-09-01 07:48:00,
2013-09-01 03:49:00,74.2,70.1,29.83,WSW,248,0.0,6.0,87,0.00,,,0.00,Wunderground v.1.15,2013-09-01 07:49:00,
2013-09-01 03:52:00,74.2,70.1,29.83,WSW,248,0.0,0.0,87,0.00,,,0.00,Wunderground v.1.15,2013-09-01 07:52:00,
2013-09-01 03:53:00,74.2,70.1,29.83,WSW,248,0.0,0.0,87,0.00,,,0.00,Wunderground v.1.15,2013-09-01 07:53:00,
2013-09-01 03:54:00,74.2,70.1,29.83,WSW,248,0.0,0.0,87,0.00,,,0.00,Wunderground v.1.15,2013-09-01 07:54:00,
2013-09-01 03:55:00,74.2,70.1,29.83,WSW,248,0.0,0.0,87,0.00,,,0.00,Wunderground v.1.15,2013-09-01 07:55:00,
2013-09-01 03:57:00,74.2,70.1,29.83,WSW,248,0.0,0.0,87,0.00,,,0.00,Wunderground v.1.15,2013-09-01 07:57:00,
2013-09-01 03:59:00,74.2,70.1,29.83,WSW,248,0.0,0.0,87,0.00,,,0.00,Wunderground v.1.15,2013-09-01 07:59:00,
2013-09-01 04:00:00,74.2,70.1,29.83,WSW,248,0.0,0.0,87,0.00,,,0.00,Wunderground v.1.15,2013-09-01 08:00:00,
2013-09-01 04:01:00,74.2,70.1,29.83,WSW,248,0.0,0.0,87,0.00,,,0.00,Wunderground v.1.15,2013-09-01 08:01:00,
2013-09-01 04:02:00,74.2,70.1,29.83,WSW,248,0.0,0.0,87,0.00,,,0.00,Wunderground v.1.15,2013-09-01 08:02:00,
2013-09-01 04:04:00,74.2,70.4,29.83,WSW,248,0.0,0.0,88,0.00,,,0.00,Wunderground v.1.15,2013-09-01 08:04:00,
2013-09-01 04:05:00,74.2,70.4,29.83,WSW,248,0.0,0.0,88,0.00,,,0.00,Wunderground v.1.15,2013-09-01 08:05:00,
2013-09-01 04:06:00,74.2,70.4,29.82,WSW,248,0.0,0.0,88,0.00,,,0.00,Wunderground v.1.15,2013-09-01 08:06:00,
2013-09-01 04:07:00,74.2,70.4,29.82,WSW,248,0.0,0.0,88,0.00,,,0.00,Wunderground v.1.15,2013-09-01 08:07:00,
2013-09-01 04:08:00,74.4,70.6,29.82,WSW,248,0.0,1.0,88,0.00,,,0.00,Wunderground v.1.15,2013-09-01 08:08:00,
2013-09-01 04:09:00,74.4,70.6,29.82,WSW,248,0.0,1.0,88,0.00,,,0.00,Wunderground v.1.15,2013-09-01 08:09:00,
2013-09-01 04:10:00,74.2,70.4,29.82,WSW,248,0.0,1.0,88,0.00,,,0.00,Wunderground v.1.15,2013-09-01 08:10:00,
2013-09-01 04:11:00,74.4,70.6,29.82,WSW,244,0.0,1.0,88,0.00,,,0.01,Wunderground v.1.15,2013-09-01 08:11:00,
2013-09-01 04:12:00,74.4,70.6,29.82,WSW,244,0.0,0.0,88,0.00,,,0.01,Wunderground v.1.15,2013-09-01 08:12:00,
2013-09-01 04:13:00,74.4,70.6,29.82,WSW,244,0.0,0.0,88,0.00,,,0.01,Wunderground v.1.15,2013-09-01 08:13:00,
2013-09-01 04:14:00,74.4,70.6,29.83,WSW,244,0.0,0.0,88,0.00,,,0.01,Wunderground v.1.15,2013-09-01 08:14:00,
2013-09-01 04:16:00,74.4,70.6,29.83,WSW,244,0.0,0.0,88,0.00,,,0.01,Wunderground v.1.15,2013-09-01 08:16:00,
2013-09-01 04:17:00,74.4,70.6,29.83,WSW,244,0.0,0.0,88,0.00,,,0.01,Wunderground v.1.15,2013-09-01 08:17:00,
2013-09-01 04:18:00,74.4,70.6,29.83,WSW,244,0.0,0.0,88,0.00,,,0.01,Wunderground v.1.15,2013-09-01 08:18:00,
2013-09-01 04:19:00,74.4,70.6,29.83,WSW,244,0.0,0.0,88,0.00,,,0.01,Wunderground v.1.15,2013-09-01 08:19:00,
2013-09-01 04:21:00,74.4,70.6,29.83,WSW,244,0.0,1.0,88,0.00,,,0.01,Wunderground v.1.15,2013-09-01 08:21:00,
2013-09-01 04:23:00,74.4,70.9,29.83,WSW,244,0.0,2.0,89,0.00,,,0.01,Wunderground v.1.15,2013-09-01 08:23:00,
2013-09-01 04:24:00,74.4,70.9,29.83,WSW,244,0.0,2.0,89,0.00,,,0.01,Wunderground v.1.15,2013-09-01 08:24:00,
2013-09-01 04:26:00,74.4,70.9,29.83,WSW,244,3.0,3.0,89,0.00,,,0.01,Wunderground v.1.15,2013-09-01 08:26:00,
2013-09-01 04:27:00,74.4,70.9,29.83,WSW,244,0.0,3.0,89,0.00,,,0.01,Wunderground v.1.15,2013-09-01 08:27:00,
2013-09-01 04:29:00,74.4,70.9,29.82,WSW,244,0.0,3.0,89,0.00,,,0.01,Wunderground v.1.15,2013-09-01 08:29:00,
2013-09-01 04:31:00,74.2,70.7,29.83,WSW,244,0.0,3.0,89,0.00,,,0.01,Wunderground v.1.15,2013-09-01 08:31:00,
2013-09-01 04:32:00,74.2,70.7,29.83,WSW,244,0.0,0.0,89,0.00,,,0.01,Wunderground v.1.15,2013-09-01 08:32:00,
2013-09-01 04:34:00,74.2,70.7,29.83,WSW,244,0.0,0.0,89,0.00,,,0.01,Wunderground v.1.15,2013-09-01 08:34:00,
2013-09-01 04:35:00,74.2,70.7,29.83,WSW,244,0.0,0.0,89,0.00,,,0.01,Wunderground v.1.15,2013-09-01 08:35:00,
2013-09-01 04:36:00,74.2,70.7,29.83,WSW,244,0.0,0.0,89,0.00,,,0.01,Wunderground v.1.15,2013-09-01 08:36:00,
2013-09-01 04:38:00,74.2,70.7,29.83,WSW,244,0.0,0.0,89,0.00,,,0.01,Wunderground v.1.15,2013-09-01 08:38:00,
2013-09-01 04:40:00,74.0,70.6,29.83,WSW,244,0.0,1.0,89,0.00,,,0.01,Wunderground v.1.15,2013-09-01 08:40:00,
2013-09-01 04:41:00,74.0,70.6,29.83,WSW,244,0.0,1.0,89,0.00,,,0.01,Wunderground v.1.15,2013-09-01 08:41:00,
2013-09-01 04:43:00,74.0,70.6,29.83,WSW,244,0.0,0.0,89,0.00,,,0.01,Wunderground v.1.15,2013-09-01 08:43:00,
2013-09-01 04:45:00,74.0,70.9,29.83,WSW,244,0.0,0.0,90,0.00,,,0.01,Wunderground v.1.15,2013-09-01 08:45:00,
2013-09-01 04:47:00,74.0,70.9,29.83,WSW,244,0.0,0.0,90,0.00,,,0.01,Wunderground v.1.15,2013-09-01 08:47:00,
2013-09-01 04:50:00,74.0,70.9,29.83,WSW,244,0.0,0.0,90,0.00,,,0.01,Wunderground v.1.15,2013-09-01 08:50:00,
2013-09-01 04:51:00,73.9,70.8,29.83,WSW,244,0.0,0.0,90,0.00,,,0.01,Wunderground v.1.15,2013-09-01 08:51:00,
2013-09-01 04:52:00,73.9,70.8,29.83,WSW,244,0.0,0.0,90,0.00,,,0.01,Wunderground v.1.15,2013-09-01 08:52:00,
2013-09-01 04:56:00,73.9,70.8,29.83,WSW,244,0.0,0.0,90,0.00,,,0.01,Wunderground v.1.15,2013-09-01 08:56:00,
2013-09-01 04:57:00,73.9,70.8,29.83,WSW,244,0.0,0.0,90,0.00,,,0.01,Wunderground v.1.15,2013-09-01 08:57:00,
2013-09-01 04:59:00,73.9,70.8,29.83,WSW,244,0.0,0.0,90,0.00,,,0.01,Wunderground v.1.15,2013-09-01 08:59:00,
2013-09-01 05:01:00,73.9,70.8,29.83,WSW,244,0.0,0.0,90,0.00,,,0.01,Wunderground v.1.15,2013-09-01 09:01:00,
2013-09-01 05:02:00,73.9,70.8,29.83,WSW,244,0.0,0.0,90,0.00,,,0.01,Wunderground v.1.15,2013-09-01 09:02:00,
2013-09-01 05:04:00,73.9,70.8,29.83,WSW,244,0.0,0.0,90,0.00,,,0.01,Wunderground v.1.15,2013-09-01 09:04:00,
2013-09-01 05:06:00,73.9,70.8,29.83,WSW,244,0.0,1.0,90,0.00,,,0.01,Wunderground v.1.15,2013-09-01 09:06:00,
2013-09-01 05:09:00,73.7,70.6,29.83,WSW,244,0.0,1.0,90,0.00,,,0.01,Wunderground v.1.15,2013-09-01 09:09:00,
2013-09-01 05:10:00,73.7,70.6,29.83,WSW,244,0.0,1.0,90,0.00,,,0.01,Wunderground v.1.15,2013-09-01 09:10:00,
2013-09-01 05:11:00,73.7,70.6,29.83,WSW,244,0.0,1.0,90,0.00,,,0.01,Wunderground v.1.15,2013-09-01 09:11:00,
2013-09-01 05:15:00,73.7,70.6,29.83,WSW,244,0.0,1.0,90,0.00,,,0.01,Wunderground v.1.15,2013-09-01 09:15:00,
2013-09-01 05:16:00,73.7,70.6,29.83,WSW,244,0.0,1.0,90,0.00,,,0.01,Wunderground v.1.15,2013-09-01 09:16:00,
2013-09-01 05:17:00,73.7,70.6,29.83,WSW,244,0.0,1.0,90,0.00,,,0.01,Wunderground v.1.15,2013-09-01 09:17:00,
2013-09-01 05:20:00,73.7,70.6,29.83,WSW,244,0.0,1.0,90,0.00,,,0.01,Wunderground v.1.15,2013-09-01 09:20:00,
2013-09-01 05:21:00,73.7,70.6,29.83,WSW,244,0.0,1.0,90,0.00,,,0.01,Wunderground v.1.15,2013-09-01 09:21:00,
2013-09-01 05:22:00,73.7,70.9,29.83,WSW,244,0.0,0.0,91,0.00,,,0.01,Wunderground v.1.15,2013-09-01 09:22:00,
2013-09-01 05:26:00,73.7,70.9,29.84,WSW,244,0.0,0.0,91,0.00,,,0.01,Wunderground v.1.15,2013-09-01 09:26:00,
2013-09-01 05:27:00,73.7,70.9,29.84,WSW,244,0.0,0.0,91,0.00,,,0.01,Wunderground v.1.15,2013-09-01 09:27:00,
2013-09-01 05:28:00,73.7,70.9,29.84,WSW,244,0.0,0.0,91,0.00,,,0.01,Wunderground v.1.15,2013-09-01 09:28:00,
2013-09-01 05:29:00,73.7,70.9,29.84,WSW,244,0.0,0.0,91,0.00,,,0.01,Wunderground v.1.15,2013-09-01 09:29:00,
2013-09-01 05:31:00,73.7,70.9,29.84,WSW,244,0.0,0.0,91,0.00,,,0.01,Wunderground v.1.15,2013-09-01 09:31:00,
2013-09-01 05:32:00,73.7,70.9,29.84,WSW,244,0.0,0.0,91,0.00,,,0.01,Wunderground v.1.15,2013-09-01 09:32:00,
2013-09-01 05:33:00,73.5,70.7,29.84,WSW,244,0.0,1.0,91,0.00,,,0.01,Wunderground v.1.15,2013-09-01 09:33:00,
2013-09-01 05:35:00,73.7,70.9,29.84,WSW,244,0.0,1.0,91,0.00,,,0.01,Wunderground v.1.15,2013-09-01 09:35:00,
2013-09-01 05:37:00,73.7,70.9,29.84,WSW,244,0.0,1.0,91,0.00,,,0.01,Wunderground v.1.15,2013-09-01 09:37:00,
2013-09-01 05:38:00,73.7,70.9,29.84,WSW,244,0.0,1.0,91,0.00,,,0.01,Wunderground v.1.15,2013-09-01 09:38:00,
2013-09-01 05:42:00,73.7,70.9,29.84,WSW,244,0.0,0.0,91,0.00,,,0.01,Wunderground v.1.15,2013-09-01 09:42:00,
2013-09-01 05:43:00,73.7,70.9,29.84,WSW,244,0.0,0.0,91,0.00,,,0.01,Wunderground v.1.15,2013-09-01 09:43:00,
2013-09-01 05:44:00,73.7,70.9,29.84,WSW,244,0.0,1.0,91,0.00,,,0.01,Wunderground v.1.15,2013-09-01 09:44:00,
2013-09-01 05:46:00,73.7,70.9,29.84,WSW,244,0.0,1.0,91,0.00,,,0.01,Wunderground v.1.15,2013-09-01 09:46:00,
2013-09-01 05:48:00,73.9,71.1,29.84,WSW,244,0.0,1.0,91,0.00,,,0.01,Wunderground v.1.15,2013-09-01 09:48:00,
2013-09-01 05:49:00,73.9,71.1,29.84,WSW,244,0.0,1.0,91,0.00,,,0.01,Wunderground v.1.15,2013-09-01 09:49:00,
2013-09-01 05:51:00,73.7,70.9,29.85,WSW,244,0.0,1.0,91,0.00,,,0.01,Wunderground v.1.15,2013-09-01 09:51:00,
2013-09-01 05:53:00,73.7,70.9,29.85,WSW,244,0.0,0.0,91,0.00,,,0.01,Wunderground v.1.15,2013-09-01 09:53:00,
2013-09-01 05:54:00,73.7,70.9,29.84,WSW,244,0.0,0.0,91,0.00,,,0.01,Wunderground v.1.15,2013-09-01 09:54:00,
2013-09-01 05:56:00,73.7,70.9,29.84,WSW,244,0.0,0.0,91,0.00,,,0.01,Wunderground v.1.15,2013-09-01 09:56:00,
2013-09-01 05:57:00,73.7,70.9,29.84,WSW,244,0.0,0.0,91,0.00,,,0.01,Wunderground v.1.15,2013-09-01 09:57:00,
2013-09-01 05:58:00,73.7,70.9,29.84,WSW,244,0.0,0.0,91,0.00,,,0.01,Wunderground v.1.15,2013-09-01 09:58:00,
2013-09-01 05:59:00,73.7,70.9,29.84,WSW,244,0.0,0.0,91,0.00,,,0.01,Wunderground v.1.15,2013-09-01 09:59:00,
2013-09-01 06:01:00,73.5,70.7,29.85,WSW,244,0.0,0.0,91,0.00,,,0.01,Wunderground v.1.15,2013-09-01 10:01:00,
2013-09-01 06:03:00,73.5,70.7,29.84,WSW,244,0.0,0.0,91,0.00,,,0.01,Wunderground v.1.15,2013-09-01 10:03:00,
2013-09-01 06:04:00,73.5,70.7,29.84,WSW,244,0.0,0.0,91,0.00,,,0.01,Wunderground v.1.15,2013-09-01 10:04:00,
2013-09-01 06:06:00,73.5,70.7,29.85,WSW,244,0.0,0.0,91,0.00,,,0.01,Wunderground v.1.15,2013-09-01 10:06:00,
2013-09-01 06:07:00,73.5,70.7,29.85,WSW,244,0.0,0.0,91,0.00,,,0.01,Wunderground v.1.15,2013-09-01 10:07:00,
2013-09-01 06:08:00,73.5,70.7,29.85,WSW,244,0.0,0.0,91,0.00,,,0.01,Wunderground v.1.15,2013-09-01 10:08:00,
2013-09-01 06:09:00,73.5,70.7,29.85,WSW,244,0.0,0.0,91,0.00,,,0.01,Wunderground v.1.15,2013-09-01 10:09:00,
2013-09-01 06:12:00,73.3,70.5,29.85,WSW,244,0.0,0.0,91,0.00,,,0.01,Wunderground v.1.15,2013-09-01 10:12:00,
2013-09-01 06:14:00,73.3,70.5,29.85,WSW,244,0.0,0.0,91,0.00,,,0.01,Wunderground v.1.15,2013-09-01 10:14:00,
2013-09-01 06:17:00,73.3,70.5,29.85,WSW,244,0.0,0.0,91,0.00,,,0.01,Wunderground v.1.15,2013-09-01 10:17:00,
2013-09-01 06:19:00,73.3,70.5,29.84,WSW,244,0.0,0.0,91,0.00,,,0.01,Wunderground v.1.15,2013-09-01 10:19:00,
2013-09-01 06:20:00,73.3,70.5,29.84,WSW,244,0.0,0.0,91,0.00,,,0.01,Wunderground v.1.15,2013-09-01 10:20:00,
2013-09-01 06:21:00,73.2,70.4,29.84,WSW,244,0.0,0.0,91,0.00,,,0.01,Wunderground v.1.15,2013-09-01 10:21:00,
2013-09-01 06:23:00,73.2,70.4,29.84,WSW,244,0.0,0.0,91,0.00,,,0.01,Wunderground v.1.15,2013-09-01 10:23:00,
2013-09-01 06:26:00,73.2,70.4,29.84,WSW,244,0.0,0.0,91,0.00,,,0.01,Wunderground v.1.15,2013-09-01 10:26:00,
2013-09-01 06:28:00,73.2,70.4,29.85,WSW,244,0.0,0.0,91,0.00,,,0.01,Wunderground v.1.15,2013-09-01 10:28:00,
2013-09-01 06:29:00,73.2,70.4,29.85,WSW,244,0.0,0.0,91,0.00,,,0.01,Wunderground v.1.15,2013-09-01 10:29:00,
2013-09-01 06:31:00,73.2,70.7,29.84,WSW,244,0.0,0.0,92,0.00,,,0.01,Wunderground v.1.15,2013-09-01 10:31:00,
2013-09-01 06:34:00,73.2,70.7,29.84,WSW,244,0.0,0.0,92,0.00,,,0.01,Wunderground v.1.15,2013-09-01 10:34:00,
2013-09-01 06:35:00,73.2,70.7,29.84,WSW,244,0.0,0.0,92,0.00,,,0.01,Wunderground v.1.15,2013-09-01 10:35:00,
2013-09-01 06:36:00,73.2,70.7,29.84,WSW,244,0.0,0.0,92,0.00,,,0.01,Wunderground v.1.15,2013-09-01 10:36:00,
2013-09-01 06:37:00,73.2,70.7,29.84,WSW,244,0.0,0.0,92,0.00,,,0.01,Wunderground v.1.15,2013-09-01 10:37:00,
2013-09-01 06:40:00,73.2,70.7,29.84,WSW,244,0.0,0.0,92,0.00,,,0.01,Wunderground v.1.15,2013-09-01 10:40:00,
2013-09-01 06:41:00,73.2,70.7,29.85,WSW,244,0.0,0.0,92,0.00,,,0.01,Wunderground v.1.15,2013-09-01 10:41:00,
2013-09-01 06:42:00,73.2,70.7,29.85,WSW,244,0.0,0.0,92,0.00,,,0.01,Wunderground v.1.15,2013-09-01 10:42:00,
2013-09-01 06:43:00,73.2,70.7,29.85,WSW,244,0.0,0.0,92,0.00,,,0.01,Wunderground v.1.15,2013-09-01 10:43:00,
2013-09-01 06:46:00,73.2,70.7,29.85,WSW,244,0.0,0.0,92,0.00,,,0.01,Wunderground v.1.15,2013-09-01 10:46:00,
2013-09-01 06:47:00,73.2,70.7,29.85,WSW,244,0.0,0.0,92,0.00,,,0.01,Wunderground v.1.15,2013-09-01 10:47:00,
2013-09-01 06:48:00,73.2,70.7,29.85,WSW,244,0.0,0.0,92,0.00,,,0.01,Wunderground v.1.15,2013-09-01 10:48:00,
2013-09-01 06:51:00,73.2,70.7,29.85,WSW,244,0.0,0.0,92,0.00,,,0.01,Wunderground v.1.15,2013-09-01 10:51:00,
2013-09-01 06:52:00,73.2,70.7,29.85,WSW,244,0.0,0.0,92,0.00,,,0.01,Wunderground v.1.15,2013-09-01 10:52:00,
2013-09-01 06:53:00,73.2,70.7,29.85,WSW,244,0.0,0.0,92,0.00,,,0.01,Wunderground v.1.15,2013-09-01 10:53:00,
2013-09-01 06:56:00,73.2,70.7,29.85,WSW,244,0.0,0.0,92,0.00,,,0.01,Wunderground v.1.15,2013-09-01 10:56:00,
2013-09-01 06:57:00,73.2,70.7,29.85,WSW,244,0.0,0.0,92,0.00,,,0.01,Wunderground v.1.15,2013-09-01 10:57:00,
2013-09-01 06:58:00,73.3,70.8,29.85,WSW,244,0.0,0.0,92,0.00,,,0.01,Wunderground v.1.15,2013-09-01 10:58:00,
2013-09-01 07:02:00,73.3,70.8,29.85,WSW,244,0.0,0.0,92,0.00,,,0.01,Wunderground v.1.15,2013-09-01 11:02:00,
2013-09-01 07:03:00,73.3,70.8,29.85,WSW,244,0.0,0.0,92,0.00,,,0.01,Wunderground v.1.15,2013-09-01 11:03:00,
2013-09-01 07:05:00,73.3,70.8,29.85,WSW,244,0.0,0.0,92,0.00,,,0.01,Wunderground v.1.15,2013-09-01 11:05:00,
2013-09-01 07:07:00,73.5,71.0,29.85,WSW,244,0.0,0.0,92,0.00,,,0.01,Wunderground v.1.15,2013-09-01 11:07:00,
2013-09-01 07:08:00,73.5,71.4,29.85,WSW,244,0.0,0.0,93,0.00,,,0.01,Wunderground v.1.15,2013-09-01 11:08:00,
2013-09-01 07:11:00,73.7,71.5,29.85,WSW,244,0.0,0.0,93,0.00,,,0.01,Wunderground v.1.15,2013-09-01 11:11:00,
2013-09-01 07:12:00,73.7,71.5,29.85,WSW,244,0.0,0.0,93,0.00,,,0.01,Wunderground v.1.15,2013-09-01 11:12:00,
2013-09-01 07:13:00,73.7,71.5,29.85,WSW,244,0.0,0.0,93,0.00,,,0.01,Wunderground v.1.15,2013-09-01 11:13:00,
2013-09-01 07:16:00,73.7,71.5,29.85,WSW,244,0.0,1.0,93,0.00,,,0.01,Wunderground v.1.15,2013-09-01 11:16:00,
2013-09-01 07:17:00,73.9,71.7,29.85,WSW,244,0.0,1.0,93,0.00,,,0.01,Wunderground v.1.15,2013-09-01 11:17:00,
2013-09-01 07:18:00,73.9,71.7,29.85,WSW,244,0.0,1.0,93,0.00,,,0.01,Wunderground v.1.15,2013-09-01 11:18:00,
2013-09-01 07:19:00,73.9,71.7,29.84,WSW,244,0.0,1.0,93,0.00,,,0.01,Wunderground v.1.15,2013-09-01 11:19:00,
2013-09-01 07:22:00,73.9,71.7,29.85,WSW,244,0.0,0.0,93,0.00,,,0.01,Wunderground v.1.15,2013-09-01 11:22:00,
2013-09-01 07:23:00,73.9,71.7,29.85,WSW,244,0.0,0.0,93,0.00,,,0.01,Wunderground v.1.15,2013-09-01 11:23:00,
2013-09-01 07:24:00,74.0,71.8,29.85,WSW,244,0.0,0.0,93,0.00,,,0.01,Wunderground v.1.15,2013-09-01 11:24:00,
2013-09-01 07:25:00,74.0,71.8,29.85,WSW,244,0.0,0.0,93,0.00,,,0.01,Wunderground v.1.15,2013-09-01 11:25:00,
2013-09-01 07:27:00,74.0,71.8,29.84,WSW,244,0.0,0.0,93,0.00,,,0.01,Wunderground v.1.15,2013-09-01 11:27:00,
2013-09-01 07:28:00,74.0,71.8,29.85,WSW,244,0.0,0.0,93,0.00,,,0.01,Wunderground v.1.15,2013-09-01 11:28:00,
2013-09-01 07:29:00,74.0,71.8,29.85,WSW,244,0.0,0.0,93,0.00,,,0.01,Wunderground v.1.15,2013-09-01 11:29:00,
2013-09-01 07:30:00,74.2,72.0,29.85,WSW,244,0.0,0.0,93,0.00,,,0.01,Wunderground v.1.15,2013-09-01 11:30:00,
2013-09-01 07:32:00,74.2,72.0,29.85,WSW,244,0.0,0.0,93,0.00,,,0.01,Wunderground v.1.15,2013-09-01 11:32:00,
2013-09-01 07:33:00,74.4,72.2,29.85,WSW,244,0.0,0.0,93,0.00,,,0.01,Wunderground v.1.15,2013-09-01 11:33:00,
2013-09-01 07:34:00,74.4,72.2,29.85,WSW,244,0.0,0.0,93,0.00,,,0.01,Wunderground v.1.15,2013-09-01 11:34:00,
2013-09-01 07:36:00,74.4,72.2,29.85,WSW,244,0.0,0.0,93,0.00,,,0.01,Wunderground v.1.15,2013-09-01 11:36:00,
2013-09-01 07:38:00,74.6,72.4,29.85,WSW,244,0.0,1.0,93,0.00,,,0.00,Wunderground v.1.15,2013-09-01 11:38:00,
2013-09-01 07:39:00,74.6,72.4,29.85,WSW,244,0.0,1.0,93,0.00,,,0.00,Wunderground v.1.15,2013-09-01 11:39:00,
2013-09-01 07:40:00,74.6,72.4,29.85,WSW,244,0.0,1.0,93,0.00,,,0.00,Wunderground v.1.15,2013-09-01 11:40:00,
2013-09-01 07:41:00,74.6,72.4,29.85,WSW,244,0.0,1.0,93,0.00,,,0.00,Wunderground v.1.15,2013-09-01 11:41:00,
2013-09-01 07:43:00,74.6,72.4,29.85,WSW,244,0.0,0.0,93,0.00,,,0.00,Wunderground v.1.15,2013-09-01 11:43:00,
2013-09-01 07:44:00,74.7,72.5,29.85,WSW,244,0.0,0.0,93,0.00,,,0.00,Wunderground v.1.15,2013-09-01 11:44:00,
2013-09-01 07:45:00,74.7,72.2,29.85,WSW,244,0.0,0.0,92,0.00,,,0.00,Wunderground v.1.15,2013-09-01 11:45:00,
2013-09-01 07:46:00,74.7,72.5,29.85,WSW,244,0.0,0.0,93,0.00,,,0.00,Wunderground v.1.15,2013-09-01 11:46:00,
2013-09-01 07:47:00,74.7,72.5,29.85,WSW,244,0.0,0.0,93,0.00,,,0.00,Wunderground v.1.15,2013-09-01 11:47:00,
2013-09-01 07:48:00,74.7,72.5,29.85,WSW,244,0.0,0.0,93,0.00,,,0.00,Wunderground v.1.15,2013-09-01 11:48:00,
2013-09-01 07:50:00,74.9,72.7,29.85,WSW,244,0.0,0.0,93,0.00,,,0.00,Wunderground v.1.15,2013-09-01 11:50:00,
2013-09-01 07:51:00,74.9,72.7,29.85,WSW,244,0.0,0.0,93,0.00,,,0.00,Wunderground v.1.15,2013-09-01 11:51:00,
2013-09-01 07:52:00,74.9,72.4,29.85,WSW,244,0.0,0.0,92,0.00,,,0.00,Wunderground v.1.15,2013-09-01 11:52:00,
2013-09-01 07:53:00,74.9,72.4,29.85,WSW,244,0.0,1.0,92,0.00,,,0.00,Wunderground v.1.15,2013-09-01 11:53:00,
2013-09-01 07:55:00,74.9,72.4,29.85,WSW,244,0.0,1.0,92,0.00,,,0.00,Wunderground v.1.15,2013-09-01 11:55:00,
2013-09-01 07:56:00,74.9,72.4,29.86,WSW,244,0.0,1.0,92,0.00,,,0.00,Wunderground v.1.15,2013-09-01 11:56:00,
2013-09-01 07:57:00,74.9,72.4,29.86,WSW,244,0.0,1.0,92,0.00,,,0.00,Wunderground v.1.15,2013-09-01 11:57:00,
2013-09-01 07:58:00,74.9,72.4,29.86,WSW,244,0.0,1.0,92,0.00,,,0.00,Wunderground v.1.15,2013-09-01 11:58:00,
2013-09-01 07:59:00,74.9,72.4,29.86,WSW,244,0.0,1.0,92,0.00,,,0.00,Wunderground v.1.15,2013-09-01 11:59:00,
2013-09-01 08:02:00,75.1,72.6,29.86,WSW,244,0.0,0.0,92,0.00,,,0.00,Wunderground v.1.15,2013-09-01 12:02:00,
2013-09-01 08:04:00,75.1,72.6,29.85,WSW,244,0.0,0.0,92,0.00,,,0.00,Wunderground v.1.15,2013-09-01 12:04:00,
2013-09-01 08:07:00,75.1,72.6,29.86,WSW,244,0.0,0.0,92,0.00,,,0.00,Wunderground v.1.15,2013-09-01 12:07:00,
2013-09-01 08:09:00,75.3,72.8,29.86,WSW,242,0.0,0.0,92,0.00,,,0.00,Wunderground v.1.15,2013-09-01 12:09:00,
2013-09-01 08:10:00,75.3,72.8,29.86,WSW,242,0.0,0.0,92,0.00,,,0.00,Wunderground v.1.15,2013-09-01 12:10:00,
2013-09-01 08:12:00,75.3,72.8,29.86,WSW,242,0.0,0.0,92,0.00,,,0.00,Wunderground v.1.15,2013-09-01 12:12:00,
2013-09-01 08:14:00,75.3,72.8,29.86,WSW,242,0.0,0.0,92,0.00,,,0.00,Wunderground v.1.15,2013-09-01 12:14:00,
2013-09-01 08:15:00,75.3,72.8,29.86,WSW,242,0.0,0.0,92,0.00,,,0.00,Wunderground v.1.15,2013-09-01 12:15:00,
2013-09-01 08:16:00,75.3,72.8,29.86,WSW,242,0.0,0.0,92,0.00,,,0.00,Wunderground v.1.15,2013-09-01 12:16:00,
2013-09-01 08:17:00,75.3,72.8,29.86,WSW,242,0.0,1.0,92,0.00,,,0.00,Wunderground v.1.15,2013-09-01 12:17:00,
2013-09-01 08:19:00,75.3,72.8,29.86,WSW,242,0.0,1.0,92,0.00,,,0.00,Wunderground v.1.15,2013-09-01 12:19:00,
2013-09-01 08:20:00,75.3,72.8,29.86,WSW,242,0.0,1.0,92,0.00,,,0.00,Wunderground v.1.15,2013-09-01 12:20:00,
2013-09-01 08:21:00,75.4,72.9,29.86,WSW,242,0.0,1.0,92,0.00,,,0.00,Wunderground v.1.15,2013-09-01 12:21:00,
2013-09-01 08:22:00,75.4,72.6,29.86,WSW,242,0.0,0.0,91,0.00,,,0.00,Wunderground v.1.15,2013-09-01 12:22:00,
2013-09-01 08:24:00,75.4,72.9,29.86,WSW,242,0.0,0.0,92,0.00,,,0.00,Wunderground v.1.15,2013-09-01 12:24:00,
2013-09-01 08:25:00,75.4,72.6,29.86,WSW,245,0.0,2.0,91,0.00,,,0.00,Wunderground v.1.15,2013-09-01 12:25:00,
2013-09-01 08:26:00,75.4,72.6,29.86,WSW,241,0.0,2.0,91,0.00,,,0.00,Wunderground v.1.15,2013-09-01 12:26:00,
2013-09-01 08:28:00,75.6,72.8,29.86,WSW,241,0.0,2.0,91,0.00,,,0.00,Wunderground v.1.15,2013-09-01 12:28:00,
2013-09-01 08:29:00,75.6,73.1,29.86,WSW,241,0.0,2.0,92,0.00,,,0.00,Wunderground v.1.15,2013-09-01 12:29:00,
2013-09-01 08:30:00,75.8,73.0,29.86,WSW,241,1.0,2.0,91,0.00,,,0.00,Wunderground v.1.15,2013-09-01 12:30:00,
2013-09-01 08:31:00,75.8,73.0,29.86,WSW,241,0.0,2.0,91,0.00,,,0.00,Wunderground v.1.15,2013-09-01 12:31:00,
2013-09-01 08:32:00,76.0,73.2,29.86,WSW,240,1.0,2.0,91,0.00,,,0.00,Wunderground v.1.15,2013-09-01 12:32:00,
2013-09-01 08:33:00,76.0,73.2,29.86,WSW,240,0.0,2.0,91,0.00,,,0.00,Wunderground v.1.15,2013-09-01 12:33:00,
2013-09-01 08:34:00,76.0,73.2,29.86,WSW,248,1.0,4.0,91,0.00,,,0.00,Wunderground v.1.15,2013-09-01 12:34:00,
2013-09-01 08:36:00,76.0,73.2,29.86,WSW,248,0.0,4.0,91,0.00,,,0.00,Wunderground v.1.15,2013-09-01 12:36:00,
2013-09-01 08:38:00,76.1,73.3,29.86,SSE,152,0.0,4.0,91,0.00,,,0.00,Wunderground v.1.15,2013-09-01 12:38:00,
2013-09-01 08:40:00,76.1,73.0,29.86,SSE,152,1.0,4.0,90,0.00,,,0.00,Wunderground v.1.15,2013-09-01 12:40:00,
2013-09-01 08:42:00,76.3,73.1,29.86,SSE,152,0.0,0.0,90,0.00,,,0.00,Wunderground v.1.15,2013-09-01 12:42:00,
2013-09-01 08:43:00,76.3,73.1,29.86,SSE,153,0.0,0.0,90,0.00,,,0.00,Wunderground v.1.15,2013-09-01 12:43:00,
2013-09-01 08:44:00,76.3,73.1,29.86,SSE,153,0.0,1.0,90,0.00,,,0.00,Wunderground v.1.15,2013-09-01 12:44:00,
2013-09-01 08:45:00,76.5,73.3,29.86,SSE,152,0.0,1.0,90,0.00,,,0.00,Wunderground v.1.15,2013-09-01 12:45:00,
2013-09-01 08:47:00,76.5,73.3,29.86,SSE,152,1.0,1.0,90,0.00,,,0.00,Wunderground v.1.15,2013-09-01 12:47:00,
2013-09-01 08:48:00,76.5,73.3,29.87,SSE,153,3.0,3.0,90,0.00,,,0.00,Wunderground v.1.15,2013-09-01 12:48:00,
2013-09-01 08:49:00,76.5,73.3,29.86,SSE,153,0.0,4.0,90,0.00,,,0.00,Wunderground v.1.15,2013-09-01 12:49:00,
2013-09-01 08:50:00,76.5,73.3,29.86,SSE,153,0.0,4.0,90,0.00,,,0.00,Wunderground v.1.15,2013-09-01 12:50:00,
2013-09-01 08:53:00,76.7,73.5,29.86,SSE,153,0.0,0.0,90,0.00,,,0.00,Wunderground v.1.15,2013-09-01 12:53:00,
2013-09-01 08:54:00,76.7,73.9,29.86,South,171,0.0,1.0,91,0.00,,,0.00,Wunderground v.1.15,2013-09-01 12:54:00,
2013-09-01 08:56:00,76.7,73.2,29.87,South,171,1.0,1.0,89,0.00,,,0.00,Wunderground v.1.15,2013-09-01 12:56:00,
2013-09-01 08:58:00,76.7,73.2,29.86,SW,221,1.0,1.0,89,0.00,,,0.00,Wunderground v.1.15,2013-09-01 12:58:00,
2013-09-01 08:59:00,76.7,73.2,29.87,SW,221,0.0,1.0,89,0.00,,,0.00,Wunderground v.1.15,2013-09-01 12:59:00,
2013-09-01 09:01:00,76.8,73.3,29.87,SW,220,0.0,1.0,89,0.00,,,0.00,Wunderground v.1.15,2013-09-01 13:01:00,
2013-09-01 09:02:00,76.8,73.3,29.87,SW,220,0.0,0.0,89,0.00,,,0.00,Wunderground v.1.15,2013-09-01 13:02:00,
2013-09-01 09:03:00,77.0,73.2,29.87,South,186,0.0,1.0,88,0.00,,,0.00,Wunderground v.1.15,2013-09-01 13:03:00,
2013-09-01 09:04:00,77.0,73.5,29.87,SSW,197,0.0,1.0,89,0.00,,,0.00,Wunderground v.1.15,2013-09-01 13:04:00,
2013-09-01 09:05:00,77.0,73.5,29.87,SSW,197,0.0,1.0,89,0.00,,,0.00,Wunderground v.1.15,2013-09-01 13:05:00,
2013-09-01 09:06:00,77.0,73.2,29.87,South,185,0.0,1.0,88,0.00,,,0.00,Wunderground v.1.15,2013-09-01 13:06:00,
2013-09-01 09:08:00,77.2,73.4,29.87,South,185,0.0,1.0,88,0.00,,,0.00,Wunderground v.1.15,2013-09-01 13:08:00,
2013-09-01 09:10:00,77.2,73.4,29.87,SSE,164,2.0,2.0,88,0.00,,,0.00,Wunderground v.1.15,2013-09-01 13:10:00,
2013-09-01 09:11:00,77.2,73.4,29.87,SSE,164,0.0,2.0,88,0.00,,,0.00,Wunderground v.1.15,2013-09-01 13:11:00,
2013-09-01 09:12:00,77.2,73.4,29.87,SSE,164,0.0,0.0,88,0.00,,,0.00,Wunderground v.1.15,2013-09-01 13:12:00,
2013-09-01 09:13:00,77.2,73.4,29.87,SSE,164,0.0,1.0,88,0.00,,,0.00,Wunderground v.1.15,2013-09-01 13:13:00,
2013-09-01 09:14:00,77.2,73.4,29.87,SSE,164,0.0,1.0,88,0.00,,,0.00,Wunderground v.1.15,2013-09-01 13:14:00,
2013-09-01 09:15:00,77.2,73.4,29.87,SSE,159,0.0,5.0,88,0.00,,,0.00,Wunderground v.1.15,2013-09-01 13:15:00,
2013-09-01 09:16:00,77.2,73.4,29.87,SSE,159,0.0,5.0,88,0.00,,,0.00,Wunderground v.1.15,2013-09-01 13:16:00,
2013-09-01 09:17:00,77.2,73.4,29.87,SSE,159,0.0,5.0,88,0.00,,,0.00,Wunderground v.1.15,2013-09-01 13:17:00,
2013-09-01 09:19:00,77.4,73.6,29.87,SSE,161,0.0,5.0,88,0.00,,,0.00,Wunderground v.1.15,2013-09-01 13:19:00,
2013-09-01 09:20:00,77.4,73.6,29.87,SSE,161,0.0,5.0,88,0.00,,,0.00,Wunderground v.1.15,2013-09-01 13:20:00,
2013-09-01 09:21:00,77.6,73.8,29.87,SSE,161,0.0,5.0,88,0.00,,,0.00,Wunderground v.1.15,2013-09-01 13:21:00,
2013-09-01 09:23:00,77.6,73.8,29.87,SSE,161,0.0,0.0,88,0.00,,,0.00,Wunderground v.1.15,2013-09-01 13:23:00,
2013-09-01 09:24:00,77.7,73.9,29.87,SSE,161,0.0,0.0,88,0.00,,,0.00,Wunderground v.1.15,2013-09-01 13:24:00,
2013-09-01 09:25:00,77.7,73.5,29.87,SSE,161,0.0,1.0,87,0.00,,,0.00,Wunderground v.1.15,2013-09-01 13:25:00,
2013-09-01 09:26:00,77.9,73.7,29.87,SSE,161,2.0,2.0,87,0.00,,,0.00,Wunderground v.1.15,2013-09-01 13:26:00,
2013-09-01 09:27:00,77.9,73.7,29.87,SSE,161,1.0,2.0,87,0.00,,,0.00,Wunderground v.1.15,2013-09-01 13:27:00,
2013-09-01 09:28:00,78.1,73.9,29.87,SSE,161,0.0,2.0,87,0.00,,,0.00,Wunderground v.1.15,2013-09-01 13:28:00,
2013-09-01 09:29:00,78.1,73.9,29.87,SSE,161,0.0,2.0,87,0.00,,,0.00,Wunderground v.1.15,2013-09-01 13:29:00,
2013-09-01 09:30:00,78.3,74.1,29.87,SSE,161,0.0,2.0,87,0.00,,,0.00,Wunderground v.1.15,2013-09-01 13:30:00,
2013-09-01 09:31:00,78.3,73.8,29.87,SSE,161,0.0,2.0,86,0.00,,,0.00,Wunderground v.1.15,2013-09-01 13:31:00,
2013-09-01 09:32:00,78.3,73.8,29.87,SSE,161,0.0,0.0,86,0.00,,,0.00,Wunderground v.1.15,2013-09-01 13:32:00,
2013-09-01 09:33:00,78.5,74.0,29.87,SSE,161,0.0,0.0,86,0.00,,,0.00,Wunderground v.1.15,2013-09-01 13:33:00,
2013-09-01 09:34:00,78.5,74.0,29.87,SSE,161,0.0,0.0,86,0.00,,,0.00,Wunderground v.1.15,2013-09-01 13:34:00,
2013-09-01 09:36:00,78.6,73.7,29.87,SSE,161,0.0,0.0,85,0.00,,,0.00,Wunderground v.1.15,2013-09-01 13:36:00,
2013-09-01 09:38:00,78.5,73.6,29.86,SSW,194,2.0,2.0,85,0.00,,,0.00,Wunderground v.1.15,2013-09-01 13:38:00,
2013-09-01 09:39:00,78.5,72.9,29.86,SW,229,4.0,4.0,83,0.00,,,0.00,Wunderground v.1.15,2013-09-01 13:39:00,
2013-09-01 09:40:00,78.5,72.9,29.86,SW,229,0.0,4.0,83,0.00,,,0.00,Wunderground v.1.15,2013-09-01 13:40:00,
2013-09-01 09:41:00,78.5,72.9,29.86,SSE,149,0.0,4.0,83,0.00,,,0.00,Wunderground v.1.15,2013-09-01 13:41:00,
2013-09-01 09:44:00,78.6,72.6,29.86,West,281,2.0,4.0,82,0.00,,,0.00,Wunderground v.1.15,2013-09-01 13:44:00,
2013-09-01 09:45:00,78.6,72.3,29.86,West,281,0.0,4.0,81,0.00,,,0.00,Wunderground v.1.15,2013-09-01 13:45:00,
2013-09-01 09:46:00,78.8,72.5,29.86,West,281,0.0,4.0,81,0.00,,,0.00,Wunderground v.1.15,2013-09-01 13:46:00,
2013-09-01 09:50:00,78.8,72.1,29.86,SW,225,0.0,4.0,80,0.00,,,0.00,Wunderground v.1.15,2013-09-01 13:50:00,
2013-09-01 09:51:00,78.8,72.1,29.86,SW,225,0.0,4.0,80,0.00,,,0.00,Wunderground v.1.15,2013-09-01 13:51:00,
2013-09-01 09:52:00,79.0,72.3,29.86,SW,225,0.0,0.0,80,0.00,,,0.00,Wunderground v.1.15,2013-09-01 13:52:00,
2013-09-01 09:53:00,79.0,72.3,29.86,SW,225,0.0,0.0,80,0.00,,,0.00,Wunderground v.1.15,2013-09-01 13:53:00,
2013-09-01 09:55:00,79.2,72.1,29.86,WSW,255,0.0,1.0,79,0.00,,,0.00,Wunderground v.1.15,2013-09-01 13:55:00,
2013-09-01 09:57:00,79.2,72.1,29.86,WSW,247,0.0,1.0,79,0.00,,,0.00,Wunderground v.1.15,2013-09-01 13:57:00,
2013-09-01 09:58:00,79.2,72.1,29.86,WSW,247,0.0,1.0,79,0.00,,,0.00,Wunderground v.1.15,2013-09-01 13:58:00,
2013-09-01 10:01:00,79.4,71.9,29.86,WSW,239,0.0,2.0,78,0.00,,,0.00,Wunderground v.1.15,2013-09-01 14:01:00,
2013-09-01 10:02:00,79.4,72.3,29.86,WSW,239,1.0,1.0,79,0.00,,,0.00,Wunderground v.1.15,2013-09-01 14:02:00,
2013-09-01 10:03:00,79.4,72.3,29.86,WSW,239,0.0,1.0,79,0.00,,,0.00,Wunderground v.1.15,2013-09-01 14:03:00,
2013-09-01 10:04:00,79.4,72.3,29.86,WSW,239,0.0,1.0,79,0.00,,,0.00,Wunderground v.1.15,2013-09-01 14:04:00,
2013-09-01 10:06:00,79.4,71.9,29.86,WSW,239,0.0,1.0,78,0.00,,,0.00,Wunderground v.1.15,2013-09-01 14:06:00,
2013-09-01 10:07:00,79.4,71.9,29.86,WSW,239,0.0,1.0,78,0.00,,,0.00,Wunderground v.1.15,2013-09-01 14:07:00,
2013-09-01 10:09:00,79.4,71.9,29.86,WSW,239,0.0,1.0,78,0.00,,,0.00,Wunderground v.1.15,2013-09-01 14:09:00,
2013-09-01 10:10:00,79.4,71.9,29.86,WSW,239,0.0,1.0,78,0.00,,,0.00,Wunderground v.1.15,2013-09-01 14:10:00,
2013-09-01 10:11:00,79.4,71.9,29.86,WSW,244,1.0,3.0,78,0.00,,,0.00,Wunderground v.1.15,2013-09-01 14:11:00,
2013-09-01 10:12:00,79.4,71.9,29.87,WSW,244,0.0,0.0,78,0.00,,,0.00,Wunderground v.1.15,2013-09-01 14:12:00,
2013-09-01 10:13:00,79.4,71.9,29.87,WSW,244,0.0,0.0,78,0.00,,,0.00,Wunderground v.1.15,2013-09-01 14:13:00,
2013-09-01 10:14:00,79.4,71.9,29.87,WSW,244,0.0,0.0,78,0.00,,,0.00,Wunderground v.1.15,2013-09-01 14:14:00,
2013-09-01 10:15:00,79.6,72.1,29.87,WSW,244,0.0,0.0,78,0.00,,,0.00,Wunderground v.1.15,2013-09-01 14:15:00,
2013-09-01 10:16:00,79.8,72.3,29.87,West,274,2.0,3.0,78,0.00,,,0.00,Wunderground v.1.15,2013-09-01 14:16:00,
2013-09-01 10:17:00,79.8,71.9,29.87,WSW,254,0.0,3.0,77,0.00,,,0.00,Wunderground v.1.15,2013-09-01 14:17:00,
2013-09-01 10:19:00,79.9,72.4,29.87,WSW,254,0.0,3.0,78,0.00,,,0.00,Wunderground v.1.15,2013-09-01 14:19:00,
2013-09-01 10:20:00,80.1,72.2,29.87,WNW,300,3.0,3.0,77,0.00,,,0.00,Wunderground v.1.15,2013-09-01 14:20:00,
2013-09-01 10:21:00,80.3,72.0,29.87,NW,322,3.0,7.0,76,0.00,,,0.00,Wunderground v.1.15,2013-09-01 14:21:00,
2013-09-01 10:22:00,80.3,72.0,29.87,SE,144,0.0,2.0,76,0.00,,,0.00,Wunderground v.1.15,2013-09-01 14:22:00,
2013-09-01 10:24:00,80.5,71.8,29.87,SW,225,1.0,4.0,75,0.00,,,0.00,Wunderground v.1.15,2013-09-01 14:24:00,
2013-09-01 10:26:00,80.5,71.4,29.86,NW,313,4.0,4.0,74,0.00,,,0.00,Wunderground v.1.15,2013-09-01 14:26:00,
2013-09-01 10:27:00,80.7,71.6,29.86,West,259,4.0,6.0,74,0.00,,,0.00,Wunderground v.1.15,2013-09-01 14:27:00,
2013-09-01 10:29:00,80.7,71.2,29.86,WNW,292,1.0,8.0,73,0.00,,,0.00,Wunderground v.1.15,2013-09-01 14:29:00,
2013-09-01 10:31:00,80.7,71.6,29.86,WNW,284,2.0,8.0,74,0.00,,,0.00,Wunderground v.1.15,2013-09-01 14:31:00,
2013-09-01 10:32:00,80.7,71.6,29.86,WNW,285,1.0,2.0,74,0.00,,,0.00,Wunderground v.1.15,2013-09-01 14:32:00,
2013-09-01 10:34:00,80.9,71.4,29.86,WSW,257,0.0,3.0,73,0.00,,,0.00,Wunderground v.1.15,2013-09-01 14:34:00,
2013-09-01 10:37:00,80.9,71.0,29.86,NE,36,0.0,3.0,72,0.00,,,0.00,Wunderground v.1.15,2013-09-01 14:37:00,
2013-09-01 10:39:00,80.9,71.0,29.86,East,100,0.0,4.0,72,0.00,,,0.00,Wunderground v.1.15,2013-09-01 14:39:00,
2013-09-01 10:40:00,80.9,71.0,29.86,NNW,334,2.0,5.0,72,0.00,,,0.00,Wunderground v.1.15,2013-09-01 14:40:00,
2013-09-01 10:42:00,81.1,71.6,29.86,WNW,294,0.0,1.0,73,0.00,,,0.00,Wunderground v.1.15,2013-09-01 14:42:00,
2013-09-01 10:44:00,81.2,70.9,29.86,West,273,1.0,3.0,71,0.00,,,0.00,Wunderground v.1.15,2013-09-01 14:44:00,
2013-09-01 10:45:00,81.4,71.5,29.86,West,273,0.0,3.0,72,0.00,,,0.00,Wunderground v.1.15,2013-09-01 14:45:00,
2013-09-01 10:47:00,81.8,71.9,29.86,WNW,288,1.0,3.0,72,0.00,,,0.00,Wunderground v.1.15,2013-09-01 14:47:00,
2013-09-01 10:48:00,81.8,71.9,29.86,WNW,290,0.0,3.0,72,0.00,,,0.00,Wunderground v.1.15,2013-09-01 14:48:00,
2013-09-01 10:49:00,82.0,71.2,29.86,WNW,290,0.0,3.0,70,0.00,,,0.00,Wunderground v.1.15,2013-09-01 14:49:00,
2013-09-01 10:50:00,82.2,71.0,29.86,WNW,290,1.0,3.0,69,0.00,,,0.00,Wunderground v.1.15,2013-09-01 14:50:00,
2013-09-01 10:52:00,82.2,71.0,29.86,WNW,289,1.0,1.0,69,0.00,,,0.00,Wunderground v.1.15,2013-09-01 14:52:00,
2013-09-01 10:53:00,82.2,71.0,29.86,WNW,288,0.0,1.0,69,0.00,,,0.00,Wunderground v.1.15,2013-09-01 14:53:00,
2013-09-01 10:55:00,82.6,71.8,29.86,WNW,288,0.0,1.0,70,0.00,,,0.00,Wunderground v.1.15,2013-09-01 14:55:00,
2013-09-01 10:56:00,82.6,71.8,29.86,WNW,288,0.0,1.0,70,0.00,,,0.00,Wunderground v.1.15,2013-09-01 14:56:00,
2013-09-01 10:58:00,82.6,71.4,29.86,SSE,153,1.0,4.0,69,0.00,,,0.00,Wunderground v.1.15,2013-09-01 14:58:00,
2013-09-01 10:59:00,82.6,71.4,29.86,SE,125,2.0,4.0,69,0.00,,,0.00,Wunderground v.1.15,2013-09-01 14:59:00,
2013-09-01 11:00:00,82.6,71.4,29.86,SE,125,0.0,4.0,69,0.00,,,0.00,Wunderground v.1.15,2013-09-01 15:00:00,
2013-09-01 11:01:00,82.8,71.6,29.86,WSW,250,1.0,4.0,69,0.00,,,0.00,Wunderground v.1.15,2013-09-01 15:01:00,
2013-09-01 11:02:00,82.8,71.2,29.86,WSW,250,0.0,1.0,68,0.00,,,0.00,Wunderground v.1.15,2013-09-01 15:02:00,
2013-09-01 11:04:00,82.8,71.6,29.86,WSW,250,0.0,1.0,69,0.00,,,0.00,Wunderground v.1.15,2013-09-01 15:04:00,
2013-09-01 11:07:00,82.8,71.6,29.86,WSW,244,0.0,2.0,69,0.00,,,0.00,Wunderground v.1.15,2013-09-01 15:07:00,
2013-09-01 11:08:00,82.8,71.2,29.86,WNW,290,0.0,3.0,68,0.00,,,0.00,Wunderground v.1.15,2013-09-01 15:08:00,
2013-09-01 11:09:00,82.8,71.2,29.86,WNW,290,0.0,3.0,68,0.00,,,0.00,Wunderground v.1.15,2013-09-01 15:09:00,
2013-09-01 11:12:00,82.8,71.2,29.86,WNW,286,0.0,0.0,68,0.00,,,0.00,Wunderground v.1.15,2013-09-01 15:12:00,
2013-09-01 11:13:00,82.8,71.6,29.86,WNW,286,0.0,0.0,69,0.00,,,0.00,Wunderground v.1.15,2013-09-01 15:13:00,
2013-09-01 11:14:00,82.8,71.6,29.86,WNW,286,0.0,0.0,69,0.00,,,0.00,Wunderground v.1.15,2013-09-01 15:14:00,
2013-09-01 11:15:00,82.8,71.6,29.86,WNW,286,0.0,0.0,69,0.00,,,0.00,Wunderground v.1.15,2013-09-01 15:15:00,
2013-09-01 11:17:00,82.8,71.6,29.86,WNW,285,0.0,2.0,69,0.00,,,0.00,Wunderground v.1.15,2013-09-01 15:17:00,
2013-09-01 11:20:00,83.0,71.3,29.86,SSW,209,2.0,2.0,68,0.00,,,0.00,Wunderground v.1.15,2013-09-01 15:20:00,
2013-09-01 11:21:00,83.0,71.3,29.86,SW,228,0.0,2.0,68,0.00,,,0.00,Wunderground v.1.15,2013-09-01 15:21:00,
2013-09-01 11:23:00,83.0,71.8,29.86,SW,227,0.0,1.0,69,0.00,,,0.00,Wunderground v.1.15,2013-09-01 15:23:00,
2013-09-01 11:25:00,83.0,71.8,29.85,SW,225,1.0,1.0,69,0.00,,,0.00,Wunderground v.1.15,2013-09-01 15:25:00,
2013-09-01 11:26:00,83.0,71.3,29.85,SSW,196,1.0,3.0,68,0.00,,,0.00,Wunderground v.1.15,2013-09-01 15:26:00,
2013-09-01 11:28:00,83.0,70.9,29.85,SSE,162,0.0,4.0,67,0.00,,,0.00,Wunderground v.1.15,2013-09-01 15:28:00,
2013-09-01 11:30:00,83.0,70.9,29.85,SSE,154,0.0,4.0,67,0.00,,,0.00,Wunderground v.1.15,2013-09-01 15:30:00,
2013-09-01 11:31:00,83.0,70.9,29.85,South,186,1.0,6.0,67,0.00,,,0.00,Wunderground v.1.15,2013-09-01 15:31:00,
2013-09-01 11:34:00,83.2,71.1,29.85,South,181,0.0,2.0,67,0.00,,,0.00,Wunderground v.1.15,2013-09-01 15:34:00,
2013-09-01 11:35:00,83.2,71.1,29.85,South,178,0.0,3.0,67,0.00,,,0.00,Wunderground v.1.15,2013-09-01 15:35:00,
2013-09-01 11:37:00,83.4,71.7,29.85,SE,132,2.0,3.0,68,0.00,,,0.00,Wunderground v.1.15,2013-09-01 15:37:00,
2013-09-01 11:39:00,83.4,71.7,29.85,South,175,3.0,4.0,68,0.00,,,0.00,Wunderground v.1.15,2013-09-01 15:39:00,
2013-09-01 11:40:00,83.4,72.2,29.85,South,173,0.0,4.0,69,0.00,,,0.00,Wunderground v.1.15,2013-09-01 15:40:00,
2013-09-01 11:41:00,83.4,72.2,29.85,SSE,159,0.0,4.0,69,0.00,,,0.00,Wunderground v.1.15,2013-09-01 15:41:00,
2013-09-01 11:43:00,83.6,72.3,29.85,SSE,155,0.0,2.0,69,0.00,,,0.00,Wunderground v.1.15,2013-09-01 15:43:00,
2013-09-01 11:45:00,83.4,72.6,29.85,SSE,157,0.0,2.0,70,0.00,,,0.00,Wunderground v.1.15,2013-09-01 15:45:00,
2013-09-01 11:46:00,83.4,72.6,29.85,SSE,157,0.0,2.0,70,0.00,,,0.00,Wunderground v.1.15,2013-09-01 15:46:00,
2013-09-01 11:48:00,83.4,72.6,29.85,SSE,158,0.0,3.0,70,0.00,,,0.00,Wunderground v.1.15,2013-09-01 15:48:00,
2013-09-01 11:49:00,83.4,72.6,29.85,SSE,158,0.0,3.0,70,0.00,,,0.00,Wunderground v.1.15,2013-09-01 15:49:00,
2013-09-01 11:51:00,83.2,72.8,29.85,SSW,194,0.0,3.0,71,0.00,,,0.00,Wunderground v.1.15,2013-09-01 15:51:00,
2013-09-01 11:53:00,83.4,73.0,29.85,SSW,194,0.0,1.0,71,0.00,,,0.00,Wunderground v.1.15,2013-09-01 15:53:00,
2013-09-01 11:54:00,83.4,73.0,29.85,SSW,194,1.0,1.0,71,0.00,,,0.00,Wunderground v.1.15,2013-09-01 15:54:00,
2013-09-01 11:55:00,83.4,73.0,29.85,SSW,194,0.0,1.0,71,0.00,,,0.00,Wunderground v.1.15,2013-09-01 15:55:00,
2013-09-01 11:56:00,83.4,73.0,29.85,SE,144,0.0,1.0,71,0.00,,,0.00,Wunderground v.1.15,2013-09-01 15:56:00,
2013-09-01 11:58:00,83.4,73.0,29.85,SE,144,0.0,1.0,71,0.00,,,0.00,Wunderground v.1.15,2013-09-01 15:58:00,
2013-09-01 12:00:00,83.6,73.2,29.85,SSE,155,0.0,2.0,71,0.00,,,0.00,Wunderground v.1.15,2013-09-01 16:00:00,
2013-09-01 12:01:00,83.4,73.0,29.85,SSE,155,0.0,2.0,71,0.00,,,0.00,Wunderground v.1.15,2013-09-01 16:01:00,
2013-09-01 12:04:00,83.6,73.2,29.85,SSE,155,0.0,1.0,71,0.00,,,0.00,Wunderground v.1.15,2013-09-01 16:04:00,
2013-09-01 12:05:00,83.6,73.2,29.84,SSE,166,0.0,1.0,71,0.00,,,0.00,Wunderground v.1.15,2013-09-01 16:05:00,
2013-09-01 12:06:00,83.8,73.4,29.84,NE,40,3.0,3.0,71,0.00,,,0.00,Wunderground v.1.15,2013-09-01 16:06:00,
2013-09-01 12:07:00,83.8,73.4,29.84,NNE,31,0.0,3.0,71,0.00,,,0.00,Wunderground v.1.15,2013-09-01 16:07:00,
2013-09-01 12:11:00,83.8,73.0,29.84,NNE,31,0.0,3.0,70,0.00,,,0.00,Wunderground v.1.15,2013-09-01 16:11:00,
2013-09-01 12:12:00,83.8,73.0,29.84,SSW,210,0.0,3.0,70,0.00,,,0.00,Wunderground v.1.15,2013-09-01 16:12:00,
2013-09-01 12:16:00,83.6,72.8,29.84,SSE,161,0.0,5.0,70,0.00,,,0.00,Wunderground v.1.15,2013-09-01 16:16:00,
2013-09-01 12:17:00,83.6,72.8,29.84,SSE,161,0.0,5.0,70,0.00,,,0.00,Wunderground v.1.15,2013-09-01 16:17:00,
2013-09-01 12:18:00,83.6,72.8,29.84,SSE,161,0.0,5.0,70,0.00,,,0.00,Wunderground v.1.15,2013-09-01 16:18:00,
2013-09-01 12:21:00,83.8,73.0,29.84,SSE,161,1.0,5.0,70,0.00,,,0.00,Wunderground v.1.15,2013-09-01 16:21:00,
2013-09-01 12:22:00,83.8,73.0,29.84,SSE,161,1.0,1.0,70,0.00,,,0.00,Wunderground v.1.15,2013-09-01 16:22:00,
2013-09-01 12:23:00,83.8,73.0,29.84,SE,140,3.0,4.0,70,0.00,,,0.00,Wunderground v.1.15,2013-09-01 16:23:00,
2013-09-01 12:25:00,83.6,72.3,29.84,SE,140,0.0,4.0,69,0.00,,,0.00,Wunderground v.1.15,2013-09-01 16:25:00,
2013-09-01 12:27:00,83.6,72.8,29.84,SSE,149,1.0,4.0,70,0.00,,,0.00,Wunderground v.1.15,2013-09-01 16:27:00,
2013-09-01 12:28:00,83.6,72.8,29.84,SSW,196,0.0,4.0,70,0.00,,,0.00,Wunderground v.1.15,2013-09-01 16:28:00,
2013-09-01 12:30:00,83.8,73.0,29.84,SSW,196,1.0,4.0,70,0.00,,,0.00,Wunderground v.1.15,2013-09-01 16:30:00,
2013-09-01 12:32:00,84.1,73.3,29.84,SSW,196,0.0,1.0,70,0.00,,,0.00,Wunderground v.1.15,2013-09-01 16:32:00,
2013-09-01 12:33:00,84.1,72.8,29.84,SSW,196,0.0,1.0,69,0.00,,,0.00,Wunderground v.1.15,2013-09-01 16:33:00,
2013-09-01 12:36:00,84.5,73.2,29.84,SW,219,2.0,3.0,69,0.00,,,0.00,Wunderground v.1.15,2013-09-01 16:36:00,
2013-09-01 12:37:00,84.5,72.8,29.84,West,264,1.0,3.0,68,0.00,,,0.00,Wunderground v.1.15,2013-09-01 16:37:00,
2013-09-01 12:38:00,84.7,73.0,29.84,West,263,2.0,3.0,68,0.00,,,0.00,Wunderground v.1.15,2013-09-01 16:38:00,
2013-09-01 12:39:00,84.7,73.0,29.84,WSW,253,1.0,3.0,68,0.00,,,0.00,Wunderground v.1.15,2013-09-01 16:39:00,
2013-09-01 12:41:00,84.7,73.0,29.84,SE,127,0.0,3.0,68,0.00,,,0.00,Wunderground v.1.15,2013-09-01 16:41:00,
2013-09-01 12:42:00,84.9,72.7,29.83,SE,137,0.0,4.0,67,0.00,,,0.00,Wunderground v.1.15,2013-09-01 16:42:00,
2013-09-01 12:43:00,84.9,72.3,29.83,SE,137,2.0,4.0,66,0.00,,,0.00,Wunderground v.1.15,2013-09-01 16:43:00,
2013-09-01 12:44:00,84.9,72.3,29.83,SE,137,1.0,4.0,66,0.00,,,0.00,Wunderground v.1.15,2013-09-01 16:44:00,
2013-09-01 12:46:00,85.1,72.5,29.83,SSE,168,1.0,4.0,66,0.00,,,0.00,Wunderground v.1.15,2013-09-01 16:46:00,
2013-09-01 12:47:00,85.3,72.6,29.83,SSE,168,0.0,4.0,66,0.00,,,0.00,Wunderground v.1.15,2013-09-01 16:47:00,
2013-09-01 12:49:00,85.3,71.7,29.83,West,275,1.0,4.0,64,0.00,,,0.00,Wunderground v.1.15,2013-09-01 16:49:00,
2013-09-01 12:50:00,85.3,71.7,29.83,West,278,2.0,4.0,64,0.00,,,0.00,Wunderground v.1.15,2013-09-01 16:50:00,
2013-09-01 12:52:00,85.3,71.7,29.83,NW,315,1.0,2.0,64,0.00,,,0.00,Wunderground v.1.15,2013-09-01 16:52:00,
2013-09-01 12:53:00,85.5,71.9,29.83,West,281,0.0,4.0,64,0.00,,,0.00,Wunderground v.1.15,2013-09-01 16:53:00,
2013-09-01 12:54:00,85.5,71.9,29.83,SW,231,3.0,4.0,64,0.00,,,0.00,Wunderground v.1.15,2013-09-01 16:54:00,
2013-09-01 12:55:00,85.5,72.4,29.83,South,178,2.0,6.0,65,0.00,,,0.00,Wunderground v.1.15,2013-09-01 16:55:00,
2013-09-01 12:58:00,85.3,72.6,29.83,ESE,110,0.0,6.0,66,0.00,,,0.00,Wunderground v.1.15,2013-09-01 16:58:00,
2013-09-01 12:59:00,85.3,72.6,29.83,ESE,111,1.0,6.0,66,0.00,,,0.00,Wunderground v.1.15,2013-09-01 16:59:00,
2013-09-01 13:00:00,85.3,72.6,29.83,SE,139,0.0,6.0,66,0.00,,,0.00,Wunderground v.1.15,2013-09-01 17:00:00,
2013-09-01 13:01:00,85.1,72.5,29.83,SE,134,1.0,6.0,66,0.00,,,0.00,Wunderground v.1.15,2013-09-01 17:01:00,
2013-09-01 13:03:00,84.9,72.7,29.83,SE,127,3.0,4.0,67,0.00,,,0.00,Wunderground v.1.15,2013-09-01 17:03:00,
2013-09-01 13:04:00,84.7,72.5,29.83,SE,127,0.0,4.0,67,0.00,,,0.00,Wunderground v.1.15,2013-09-01 17:04:00,
2013-09-01 13:05:00,84.7,73.0,29.83,SE,128,0.0,4.0,68,0.00,,,0.00,Wunderground v.1.15,2013-09-01 17:05:00,
2013-09-01 13:06:00,84.7,73.0,29.83,SE,128,0.0,4.0,68,0.00,,,0.00,Wunderground v.1.15,2013-09-01 17:06:00,
2013-09-01 13:08:00,84.7,72.5,29.83,SE,144,0.0,5.0,67,0.00,,,0.00,Wunderground v.1.15,2013-09-01 17:08:00,
2013-09-01 13:09:00,84.7,72.5,29.83,SE,144,0.0,5.0,67,0.00,,,0.00,Wunderground v.1.15,2013-09-01 17:09:00,
2013-09-01 13:10:00,84.7,72.5,29.83,SSE,160,1.0,5.0,67,0.00,,,0.00,Wunderground v.1.15,2013-09-01 17:10:00,
2013-09-01 13:11:00,84.9,72.7,29.83,SSE,160,1.0,5.0,67,0.00,,,0.00,Wunderground v.1.15,2013-09-01 17:11:00,
2013-09-01 13:13:00,84.9,72.3,29.83,SSE,161,0.0,3.0,66,0.00,,,0.00,Wunderground v.1.15,2013-09-01 17:13:00,
2013-09-01 13:15:00,84.9,72.3,29.83,SE,141,1.0,4.0,66,0.00,,,0.00,Wunderground v.1.15,2013-09-01 17:15:00,
2013-09-01 13:16:00,84.9,72.3,29.83,SE,143,0.0,4.0,66,0.00,,,0.00,Wunderground v.1.15,2013-09-01 17:16:00,
2013-09-01 13:18:00,84.9,72.3,29.83,SE,144,2.0,9.0,66,0.00,,,0.00,Wunderground v.1.15,2013-09-01 17:18:00,
2013-09-01 13:21:00,84.9,72.7,29.83,South,172,1.0,9.0,67,0.00,,,0.00,Wunderground v.1.15,2013-09-01 17:21:00,
2013-09-01 13:22:00,85.1,72.9,29.83,South,172,1.0,9.0,67,0.00,,,0.00,Wunderground v.1.15,2013-09-01 17:22:00,
2013-09-01 13:23:00,85.1,72.5,29.83,SSE,167,0.0,5.0,66,0.00,,,0.00,Wunderground v.1.15,2013-09-01 17:23:00,
2013-09-01 13:26:00,85.3,72.2,29.83,SSE,149,1.0,5.0,65,0.00,,,0.00,Wunderground v.1.15,2013-09-01 17:26:00,
2013-09-01 13:28:00,85.1,72.0,29.83,East,89,2.0,5.0,65,0.00,,,0.00,Wunderground v.1.15,2013-09-01 17:28:00,
2013-09-01 13:29:00,84.9,72.3,29.83,SE,144,0.0,5.0,66,0.00,,,0.00,Wunderground v.1.15,2013-09-01 17:29:00,
2013-09-01 13:30:00,84.7,72.1,29.83,ESE,114,4.0,5.0,66,0.00,,,0.00,Wunderground v.1.15,2013-09-01 17:30:00,
2013-09-01 13:31:00,84.3,72.1,29.83,ESE,123,1.0,5.0,67,0.00,,,0.00,Wunderground v.1.15,2013-09-01 17:31:00,
2013-09-01 13:32:00,84.1,72.0,29.83,SE,124,3.0,5.0,67,0.00,,,0.00,Wunderground v.1.15,2013-09-01 17:32:00,
2013-09-01 13:33:00,83.8,72.1,29.83,SE,127,3.0,5.0,68,0.00,,,0.00,Wunderground v.1.15,2013-09-01 17:33:00,
2013-09-01 13:34:00,83.8,72.5,29.83,SE,129,1.0,5.0,69,0.00,,,0.00,Wunderground v.1.15,2013-09-01 17:34:00,
2013-09-01 13:36:00,83.4,72.2,29.83,SE,129,0.0,5.0,69,0.00,,,0.00,Wunderground v.1.15,2013-09-01 17:36:00,
2013-09-01 13:37:00,83.4,72.2,29.83,SE,132,2.0,5.0,69,0.00,,,0.00,Wunderground v.1.15,2013-09-01 17:37:00,
2013-09-01 13:38:00,83.6,72.8,29.83,SE,132,0.0,5.0,70,0.00,,,0.00,Wunderground v.1.15,2013-09-01 17:38:00,
2013-09-01 13:39:00,83.8,73.0,29.83,SE,132,0.0,5.0,70,0.00,,,0.00,Wunderground v.1.15,2013-09-01 17:39:00,
2013-09-01 13:41:00,83.8,72.5,29.83,SE,132,0.0,5.0,69,0.00,,,0.00,Wunderground v.1.15,2013-09-01 17:41:00,
2013-09-01 13:42:00,84.0,72.7,29.83,SE,132,0.0,1.0,69,0.00,,,0.00,Wunderground v.1.15,2013-09-01 17:42:00,
2013-09-01 13:43:00,84.3,72.6,29.83,SE,132,0.0,1.0,68,0.00,,,0.00,Wunderground v.1.15,2013-09-01 17:43:00,
2013-09-01 13:44:00,84.3,72.6,29.83,SE,132,0.0,1.0,68,0.00,,,0.00,Wunderground v.1.15,2013-09-01 17:44:00,
2013-09-01 13:46:00,84.5,72.8,29.83,SE,132,2.0,2.0,68,0.00,,,0.00,Wunderground v.1.15,2013-09-01 17:46:00,
2013-09-01 13:47:00,84.7,72.5,29.83,SE,133,0.0,2.0,67,0.00,,,0.00,Wunderground v.1.15,2013-09-01 17:47:00,
2013-09-01 13:49:00,84.9,72.7,29.83,SE,142,0.0,2.0,67,0.00,,,0.00,Wunderground v.1.15,2013-09-01 17:49:00,
2013-09-01 13:50:00,84.9,72.3,29.83,SE,142,0.0,2.0,66,0.00,,,0.00,Wunderground v.1.15,2013-09-01 17:50:00,
2013-09-01 13:51:00,84.9,72.3,29.83,NE,50,0.0,2.0,66,0.00,,,0.00,Wunderground v.1.15,2013-09-01 17:51:00,
2013-09-01 13:52:00,84.9,72.3,29.83,ESE,112,0.0,1.0,66,0.00,,,0.00,Wunderground v.1.15,2013-09-01 17:52:00,
2013-09-01 13:54:00,84.7,72.5,29.83,ESE,112,2.0,3.0,67,0.00,,,0.00,Wunderground v.1.15,2013-09-01 17:54:00,
2013-09-01 13:55:00,84.5,72.3,29.83,South,173,0.0,3.0,67,0.00,,,0.00,Wunderground v.1.15,2013-09-01 17:55:00,
2013-09-01 13:56:00,84.5,72.3,29.83,South,173,0.0,3.0,67,0.00,,,0.00,Wunderground v.1.15,2013-09-01 17:56:00,
2013-09-01 13:57:00,84.3,72.1,29.83,South,172,0.0,3.0,67,0.00,,,0.00,Wunderground v.1.15,2013-09-01 17:57:00,
2013-09-01 13:58:00,84.1,72.4,29.83,South,172,0.0,3.0,68,0.00,,,0.00,Wunderground v.1.15,2013-09-01 17:58:00,
2013-09-01 13:59:00,84.1,72.4,29.83,South,175,3.0,3.0,68,0.00,,,0.00,Wunderground v.1.15,2013-09-01 17:59:00,
2013-09-01 14:01:00,84.0,72.3,29.83,East,79,2.0,5.0,68,0.00,,,0.00,Wunderground v.1.15,2013-09-01 18:01:00,
2013-09-01 14:02:00,84.0,72.7,29.83,East,91,0.0,1.0,69,0.00,,,0.00,Wunderground v.1.15,2013-09-01 18:02:00,
2013-09-01 14:03:00,83.8,72.1,29.83,ESE,107,0.0,3.0,68,0.00,,,0.00,Wunderground v.1.15,2013-09-01 18:03:00,
2013-09-01 14:04:00,83.6,72.3,29.83,ESE,107,0.0,3.0,69,0.00,,,0.00,Wunderground v.1.15,2013-09-01 18:04:00,
2013-09-01 14:06:00,83.6,72.3,29.83,ESE,114,0.0,3.0,69,0.00,,,0.00,Wunderground v.1.15,2013-09-01 18:06:00,
2013-09-01 14:07:00,83.4,71.7,29.83,SE,130,1.0,3.0,68,0.00,,,0.00,Wunderground v.1.15,2013-09-01 18:07:00,
2013-09-01 14:08:00,83.2,72.0,29.83,SE,136,3.0,3.0,69,0.00,,,0.00,Wunderground v.1.15,2013-09-01 18:08:00,
2013-09-01 14:10:00,83.0,71.8,29.83,SE,126,3.0,5.0,69,0.00,,,0.00,Wunderground v.1.15,2013-09-01 18:10:00,
2013-09-01 14:11:00,82.4,71.6,29.83,ESE,115,0.0,5.0,70,0.00,,,0.00,Wunderground v.1.15,2013-09-01 18:11:00,
2013-09-01 14:12:00,82.4,72.0,29.83,SSE,165,0.0,2.0,71,0.00,,,0.00,Wunderground v.1.15,2013-09-01 18:12:00,
2013-09-01 14:14:00,82.4,72.0,29.83,SE,142,0.0,3.0,71,0.00,,,0.00,Wunderground v.1.15,2013-09-01 18:14:00,
2013-09-01 14:15:00,82.4,72.0,29.83,SE,142,0.0,3.0,71,0.00,,,0.00,Wunderground v.1.15,2013-09-01 18:15:00,
2013-09-01 14:16:00,82.6,72.2,29.83,SE,142,0.0,3.0,71,0.00,,,0.00,Wunderground v.1.15,2013-09-01 18:16:00,
2013-09-01 14:18:00,82.6,72.2,29.83,SE,142,0.0,3.0,71,0.00,,,0.00,Wunderground v.1.15,2013-09-01 18:18:00,
2013-09-01 14:19:00,82.8,72.4,29.83,SE,142,0.0,3.0,71,0.00,,,0.00,Wunderground v.1.15,2013-09-01 18:19:00,
2013-09-01 14:20:00,83.0,72.6,29.83,SE,142,0.0,3.0,71,0.00,,,0.00,Wunderground v.1.15,2013-09-01 18:20:00,
2013-09-01 14:22:00,83.2,72.4,29.83,South,190,0.0,0.0,70,0.00,,,0.00,Wunderground v.1.15,2013-09-01 18:22:00,
2013-09-01 14:23:00,83.4,72.6,29.83,South,190,0.0,0.0,70,0.00,,,0.00,Wunderground v.1.15,2013-09-01 18:23:00,
2013-09-01 14:24:00,83.4,72.6,29.83,South,190,0.0,0.0,70,0.00,,,0.00,Wunderground v.1.15,2013-09-01 18:24:00,
2013-09-01 14:26:00,83.4,72.2,29.83,South,173,1.0,4.0,69,0.00,,,0.00,Wunderground v.1.15,2013-09-01 18:26:00,
2013-09-01 14:27:00,83.6,72.3,29.83,SE,127,0.0,4.0,69,0.00,,,0.00,Wunderground v.1.15,2013-09-01 18:27:00,
2013-09-01 14:29:00,83.8,72.1,29.83,SSW,211,0.0,4.0,68,0.00,,,0.00,Wunderground v.1.15,2013-09-01 18:29:00,
2013-09-01 14:30:00,83.8,72.1,29.83,SSE,159,2.0,4.0,68,0.00,,,0.00,Wunderground v.1.15,2013-09-01 18:30:00,
2013-09-01 14:31:00,83.8,72.1,29.83,SE,144,3.0,6.0,68,0.00,,,0.00,Wunderground v.1.15,2013-09-01 18:31:00,
2013-09-01 14:32:00,83.6,71.9,29.83,SSE,159,3.0,6.0,68,0.00,,,0.00,Wunderground v.1.15,2013-09-01 18:32:00,
2013-09-01 14:34:00,83.4,71.7,29.83,ESE,114,3.0,6.0,68,0.00,,,0.00,Wunderground v.1.15,2013-09-01 18:34:00,
2013-09-01 14:35:00,83.2,71.5,29.83,ESE,116,3.0,6.0,68,0.00,,,0.00,Wunderground v.1.15,2013-09-01 18:35:00,
2013-09-01 14:37:00,82.6,71.4,29.82,ESE,112,1.0,6.0,69,0.00,,,0.00,Wunderground v.1.15,2013-09-01 18:37:00,
2013-09-01 14:39:00,82.4,71.2,29.82,South,176,4.0,6.0,69,0.00,,,0.00,Wunderground v.1.15,2013-09-01 18:39:00,
2013-09-01 14:40:00,82.4,71.2,29.82,SE,141,3.0,6.0,69,0.00,,,0.00,Wunderground v.1.15,2013-09-01 18:40:00,
2013-09-01 14:42:00,82.0,71.2,29.82,South,174,1.0,2.0,70,0.00,,,0.00,Wunderground v.1.15,2013-09-01 18:42:00,
2013-09-01 14:44:00,82.0,71.7,29.82,South,177,2.0,3.0,71,0.00,,,0.00,Wunderground v.1.15,2013-09-01 18:44:00,
2013-09-01 14:45:00,81.8,71.5,29.82,SE,139,1.0,3.0,71,0.00,,,0.00,Wunderground v.1.15,2013-09-01 18:45:00,
2013-09-01 14:47:00,81.8,71.5,29.82,SE,134,1.0,4.0,71,0.00,,,0.00,Wunderground v.1.15,2013-09-01 18:47:00,
2013-09-01 14:48:00,81.8,71.5,29.82,SE,134,0.0,4.0,71,0.00,,,0.00,Wunderground v.1.15,2013-09-01 18:48:00,
2013-09-01 14:49:00,81.8,71.5,29.82,SE,134,1.0,4.0,71,0.00,,,0.00,Wunderground v.1.15,2013-09-01 18:49:00,
2013-09-01 14:50:00,82.0,72.1,29.82,SE,132,2.0,4.0,72,0.00,,,0.00,Wunderground v.1.15,2013-09-01 18:50:00,
2013-09-01 14:52:00,82.0,71.7,29.82,SE,133,1.0,3.0,71,0.00,,,0.00,Wunderground v.1.15,2013-09-01 18:52:00,
2013-09-01 14:53:00,82.0,71.7,29.82,SE,132,0.0,3.0,71,0.00,,,0.00,Wunderground v.1.15,2013-09-01 18:53:00,
2013-09-01 14:55:00,82.2,71.9,29.82,SE,146,0.0,4.0,71,0.00,,,0.00,Wunderground v.1.15,2013-09-01 18:55:00,
2013-09-01 14:56:00,82.4,72.0,29.82,South,175,3.0,4.0,71,0.00,,,0.00,Wunderground v.1.15,2013-09-01 18:56:00,
2013-09-01 14:57:00,82.2,71.4,29.82,SE,134,4.0,5.0,70,0.00,,,0.00,Wunderground v.1.15,2013-09-01 18:57:00,
2013-09-01 14:58:00,82.2,71.4,29.82,SE,143,2.0,5.0,70,0.00,,,0.00,Wunderground v.1.15,2013-09-01 18:58:00,
2013-09-01 15:01:00,82.0,71.2,29.82,SSE,164,3.0,5.0,70,0.00,,,0.00,Wunderground v.1.15,2013-09-01 19:01:00,
2013-09-01 15:02:00,82.0,71.7,29.82,SE,142,2.0,4.0,71,0.00,,,0.00,Wunderground v.1.15,2013-09-01 19:02:00,
2013-09-01 15:04:00,81.8,71.5,29.82,SSW,208,0.0,6.0,71,0.00,,,0.00,Wunderground v.1.15,2013-09-01 19:04:00,
2013-09-01 15:06:00,81.6,71.7,29.82,SSE,160,1.0,6.0,72,0.00,,,0.00,Wunderground v.1.15,2013-09-01 19:06:00,
2013-09-01 15:07:00,81.6,71.3,29.82,SE,134,1.0,6.0,71,0.00,,,0.00,Wunderground v.1.15,2013-09-01 19:07:00,
2013-09-01 15:08:00,81.6,71.7,29.82,SSE,157,6.0,9.0,72,0.00,,,0.00,Wunderground v.1.15,2013-09-01 19:08:00,
2013-09-01 15:10:00,81.1,71.6,29.82,SSE,160,0.0,9.0,73,0.00,,,0.00,Wunderground v.1.15,2013-09-01 19:10:00,
2013-09-01 15:11:00,80.9,71.4,29.82,SSE,160,0.0,9.0,73,0.00,,,0.00,Wunderground v.1.15,2013-09-01 19:11:00,
2013-09-01 15:13:00,80.9,71.4,29.82,South,184,0.0,2.0,73,0.00,,,0.00,Wunderground v.1.15,2013-09-01 19:13:00,
2013-09-01 15:14:00,80.9,71.8,29.82,SSE,160,1.0,4.0,74,0.00,,,0.00,Wunderground v.1.15,2013-09-01 19:14:00,
2013-09-01 15:16:00,80.7,71.6,29.82,SSE,160,0.0,4.0,74,0.00,,,0.00,Wunderground v.1.15,2013-09-01 19:16:00,
2013-09-01 15:17:00,80.7,71.6,29.82,ESE,120,2.0,4.0,74,0.00,,,0.00,Wunderground v.1.15,2013-09-01 19:17:00,
2013-09-01 15:18:00,80.7,71.6,29.82,SSW,200,0.0,4.0,74,0.00,,,0.00,Wunderground v.1.15,2013-09-01 19:18:00,
2013-09-01 15:19:00,80.7,72.0,29.82,SSW,200,1.0,4.0,75,0.00,,,0.00,Wunderground v.1.15,2013-09-01 19:19:00,
2013-09-01 15:21:00,80.7,72.0,29.82,SW,235,0.0,4.0,75,0.00,,,0.00,Wunderground v.1.15,2013-09-01 19:21:00,
2013-09-01 15:22:00,80.7,72.0,29.81,SW,235,0.0,1.0,75,0.00,,,0.00,Wunderground v.1.15,2013-09-01 19:22:00,
2013-09-01 15:23:00,80.7,72.0,29.81,SSW,200,1.0,2.0,75,0.00,,,0.00,Wunderground v.1.15,2013-09-01 19:23:00,
2013-09-01 15:24:00,80.5,71.4,29.81,South,190,1.0,3.0,74,0.00,,,0.00,Wunderground v.1.15,2013-09-01 19:24:00,
2013-09-01 15:27:00,80.3,71.6,29.81,SW,220,5.0,5.0,75,0.00,,,0.00,Wunderground v.1.15,2013-09-01 19:27:00,
2013-09-01 15:28:00,80.1,71.5,29.81,SSW,211,1.0,5.0,75,0.00,,,0.00,Wunderground v.1.15,2013-09-01 19:28:00,
2013-09-01 15:30:00,80.1,71.8,29.81,SE,142,1.0,5.0,76,0.00,,,0.00,Wunderground v.1.15,2013-09-01 19:30:00,
2013-09-01 15:31:00,79.9,71.7,29.81,South,176,0.0,5.0,76,0.00,,,0.00,Wunderground v.1.15,2013-09-01 19:31:00,
2013-09-01 15:32:00,79.9,71.7,29.81,SE,136,0.0,1.0,76,0.00,,,0.00,Wunderground v.1.15,2013-09-01 19:32:00,
2013-09-01 15:33:00,79.9,71.7,29.81,SE,141,0.0,1.0,76,0.00,,,0.00,Wunderground v.1.15,2013-09-01 19:33:00,
2013-09-01 15:34:00,79.8,71.6,29.81,SE,141,1.0,2.0,76,0.00,,,0.00,Wunderground v.1.15,2013-09-01 19:34:00,
2013-09-01 15:35:00,79.8,71.6,29.81,SE,144,1.0,4.0,76,0.00,,,0.00,Wunderground v.1.15,2013-09-01 19:35:00,
2013-09-01 15:36:00,79.6,71.4,29.81,South,170,2.0,4.0,76,0.00,,,0.00,Wunderground v.1.15,2013-09-01 19:36:00,
2013-09-01 15:38:00,79.6,71.4,29.81,SSE,147,0.0,4.0,76,0.00,,,0.00,Wunderground v.1.15,2013-09-01 19:38:00,
2013-09-01 15:39:00,79.6,71.4,29.81,SSE,147,0.0,4.0,76,0.00,,,0.00,Wunderground v.1.15,2013-09-01 19:39:00,
2013-09-01 15:40:00,79.6,71.4,29.81,SSE,147,0.0,4.0,76,0.00,,,0.00,Wunderground v.1.15,2013-09-01 19:40:00,
2013-09-01 15:41:00,79.6,71.8,29.81,ENE,65,1.0,4.0,77,0.00,,,0.00,Wunderground v.1.15,2013-09-01 19:41:00,
2013-09-01 15:43:00,79.6,71.8,29.81,ENE,78,0.0,3.0,77,0.00,,,0.00,Wunderground v.1.15,2013-09-01 19:43:00,
2013-09-01 15:44:00,79.6,71.8,29.81,ENE,78,0.0,3.0,77,0.00,,,0.00,Wunderground v.1.15,2013-09-01 19:44:00,
2013-09-01 15:45:00,79.6,71.8,29.81,ENE,78,0.0,3.0,77,0.00,,,0.00,Wunderground v.1.15,2013-09-01 19:45:00,
2013-09-01 15:46:00,79.6,71.8,29.81,ENE,78,1.0,3.0,77,0.00,,,0.00,Wunderground v.1.15,2013-09-01 19:46:00,
2013-09-01 15:47:00,79.4,71.9,29.81,East,90,0.0,3.0,78,0.00,,,0.00,Wunderground v.1.15,2013-09-01 19:47:00,
2013-09-01 15:49:00,79.4,71.9,29.81,SSE,153,1.0,3.0,78,0.00,,,0.00,Wunderground v.1.15,2013-09-01 19:49:00,
2013-09-01 15:50:00,79.4,71.9,29.81,SSE,153,0.0,3.0,78,0.00,,,0.00,Wunderground v.1.15,2013-09-01 19:50:00,
2013-09-01 15:52:00,79.4,71.9,29.81,SSE,153,0.0,1.0,78,0.00,,,0.00,Wunderground v.1.15,2013-09-01 19:52:00,
2013-09-01 15:53:00,79.2,71.7,29.81,SSE,157,3.0,3.0,78,0.00,,,0.00,Wunderground v.1.15,2013-09-01 19:53:00,
2013-09-01 15:54:00,79.2,71.7,29.80,South,172,0.0,5.0,78,0.00,,,0.00,Wunderground v.1.15,2013-09-01 19:54:00,
2013-09-01 15:55:00,79.2,71.7,29.80,South,172,1.0,5.0,78,0.00,,,0.00,Wunderground v.1.15,2013-09-01 19:55:00,
2013-09-01 15:57:00,79.2,72.1,29.80,SE,136,0.0,5.0,79,0.00,,,0.00,Wunderground v.1.15,2013-09-01 19:57:00,
2013-09-01 15:58:00,79.0,71.9,29.80,SE,136,1.0,5.0,79,0.00,,,0.00,Wunderground v.1.15,2013-09-01 19:58:00,
2013-09-01 15:59:00,79.0,71.9,29.80,SE,136,0.0,5.0,79,0.00,,,0.00,Wunderground v.1.15,2013-09-01 19:59:00,
2013-09-01 16:00:00,79.0,71.9,29.80,SE,136,1.0,5.0,79,0.00,,,0.00,Wunderground v.1.15,2013-09-01 20:00:00,
2013-09-01 16:03:00,78.8,71.7,29.81,East,89,0.0,1.0,79,0.00,,,0.00,Wunderground v.1.15,2013-09-01 20:03:00,
2013-09-01 16:04:00,78.6,71.9,29.81,SSE,157,1.0,4.0,80,0.00,,,0.00,Wunderground v.1.15,2013-09-01 20:04:00,
2013-09-01 16:05:00,78.5,71.8,29.81,SE,140,1.0,4.0,80,0.00,,,0.00,Wunderground v.1.15,2013-09-01 20:05:00,
2013-09-01 16:06:00,78.5,71.8,29.81,SE,140,0.0,4.0,80,0.00,,,0.00,Wunderground v.1.15,2013-09-01 20:06:00,
2013-09-01 16:09:00,78.3,72.0,29.81,SSE,164,0.0,4.0,81,0.00,,,0.00,Wunderground v.1.15,2013-09-01 20:09:00,
2013-09-01 16:10:00,78.3,72.3,29.81,SE,144,3.0,3.0,82,0.00,,,0.00,Wunderground v.1.15,2013-09-01 20:10:00,
2013-09-01 16:11:00,78.3,72.3,29.81,SSE,163,2.0,3.0,82,0.00,,,0.00,Wunderground v.1.15,2013-09-01 20:11:00,
2013-09-01 16:15:00,77.7,72.1,29.81,South,172,0.0,4.0,83,0.00,,,0.00,Wunderground v.1.15,2013-09-01 20:15:00,
2013-09-01 16:16:00,77.6,72.0,29.81,SSE,151,1.0,4.0,83,0.00,,,0.00,Wunderground v.1.15,2013-09-01 20:16:00,
2013-09-01 16:20:00,77.0,71.8,29.81,ESE,114,1.0,2.0,84,0.00,,,0.00,Wunderground v.1.15,2013-09-01 20:20:00,
2013-09-01 16:21:00,77.0,71.8,29.82,South,177,0.0,3.0,84,0.00,,,0.00,Wunderground v.1.15,2013-09-01 20:21:00,
2013-09-01 16:25:00,76.7,71.8,29.81,SE,146,0.0,3.0,85,0.00,,,0.00,Wunderground v.1.15,2013-09-01 20:25:00,
2013-09-01 16:26:00,76.7,71.8,29.81,SSE,156,1.0,4.0,85,0.00,,,0.00,Wunderground v.1.15,2013-09-01 20:26:00,
2013-09-01 16:27:00,76.7,71.8,29.80,SSE,156,0.0,4.0,85,0.00,,,0.00,Wunderground v.1.15,2013-09-01 20:27:00,
2013-09-01 16:28:00,76.7,71.8,29.80,SSE,156,0.0,4.0,85,0.00,,,0.00,Wunderground v.1.15,2013-09-01 20:28:00,
2013-09-01 16:31:00,76.5,71.7,29.81,South,173,1.0,1.0,85,0.00,,,0.00,Wunderground v.1.15,2013-09-01 20:31:00,
2013-09-01 16:32:00,76.5,71.7,29.81,South,173,0.0,1.0,85,0.00,,,0.00,Wunderground v.1.15,2013-09-01 20:32:00,
2013-09-01 16:33:00,76.3,71.5,29.81,South,171,2.0,2.0,85,0.00,,,0.00,Wunderground v.1.15,2013-09-01 20:33:00,
2013-09-01 16:36:00,76.3,71.5,29.80,SSE,155,0.0,3.0,85,0.00,,,0.00,Wunderground v.1.15,2013-09-01 20:36:00,
2013-09-01 16:37:00,76.3,71.5,29.80,SSE,155,0.0,3.0,85,0.00,,,0.00,Wunderground v.1.15,2013-09-01 20:37:00,
2013-09-01 16:38:00,76.3,71.8,29.80,SSE,155,1.0,3.0,86,0.00,,,0.00,Wunderground v.1.15,2013-09-01 20:38:00,
2013-09-01 16:39:00,76.3,71.8,29.80,SSE,155,0.0,3.0,86,0.00,,,0.00,Wunderground v.1.15,2013-09-01 20:39:00,
2013-09-01 16:42:00,76.3,71.8,29.80,SSE,161,3.0,3.0,86,0.00,,,0.00,Wunderground v.1.15,2013-09-01 20:42:00,
2013-09-01 16:43:00,76.1,71.6,29.80,SSE,165,1.0,4.0,86,0.00,,,0.00,Wunderground v.1.15,2013-09-01 20:43:00,
2013-09-01 16:45:00,76.1,71.6,29.81,SSE,165,0.0,4.0,86,0.00,,,0.00,Wunderground v.1.15,2013-09-01 20:45:00,
2013-09-01 16:47:00,76.1,71.6,29.81,SSE,165,1.0,4.0,86,0.00,,,0.00,Wunderground v.1.15,2013-09-01 20:47:00,
2013-09-01 16:49:00,76.1,71.9,29.82,SSE,167,0.0,4.0,87,0.00,,,0.00,Wunderground v.1.15,2013-09-01 20:49:00,
2013-09-01 16:50:00,76.1,71.9,29.82,South,169,2.0,2.0,87,0.00,,,0.00,Wunderground v.1.15,2013-09-01 20:50:00,
2013-09-01 16:51:00,76.1,71.9,29.82,South,181,0.0,4.0,87,0.00,,,0.00,Wunderground v.1.15,2013-09-01 20:51:00,
2013-09-01 16:52:00,76.0,71.8,29.82,South,181,0.0,4.0,87,0.00,,,0.00,Wunderground v.1.15,2013-09-01 20:52:00,
2013-09-01 16:54:00,76.0,71.8,29.82,South,182,0.0,4.0,87,0.00,,,0.00,Wunderground v.1.15,2013-09-01 20:54:00,
2013-09-01 16:55:00,76.0,71.8,29.82,South,182,0.0,4.0,87,0.00,,,0.00,Wunderground v.1.15,2013-09-01 20:55:00,
2013-09-01 16:56:00,76.0,71.8,29.82,South,181,1.0,4.0,87,0.00,,,0.00,Wunderground v.1.15,2013-09-01 20:56:00,
2013-09-01 16:57:00,76.0,71.8,29.81,South,182,0.0,4.0,87,0.00,,,0.00,Wunderground v.1.15,2013-09-01 20:57:00,
2013-09-01 16:59:00,76.0,72.2,29.81,South,181,0.0,4.0,88,0.00,,,0.00,Wunderground v.1.15,2013-09-01 20:59:00,
2013-09-01 17:01:00,76.0,72.2,29.80,South,181,0.0,0.0,88,0.00,,,0.00,Wunderground v.1.15,2013-09-01 21:01:00,
2013-09-01 17:02:00,76.0,72.2,29.81,South,181,0.0,0.0,88,0.00,,,0.00,Wunderground v.1.15,2013-09-01 21:02:00,
2013-09-01 17:04:00,76.0,72.2,29.81,South,181,0.0,1.0,88,0.00,,,0.00,Wunderground v.1.15,2013-09-01 21:04:00,
2013-09-01 17:07:00,76.0,72.2,29.81,South,182,0.0,1.0,88,0.00,,,0.00,Wunderground v.1.15,2013-09-01 21:07:00,
2013-09-01 17:08:00,76.0,72.2,29.81,South,182,0.0,1.0,88,0.00,,,0.01,Wunderground v.1.15,2013-09-01 21:08:00,
2013-09-01 17:09:00,76.0,72.2,29.82,South,182,0.0,1.0,88,0.00,,,0.01,Wunderground v.1.15,2013-09-01 21:09:00,
2013-09-01 17:12:00,76.0,72.2,29.82,South,182,0.0,1.0,88,0.00,,,0.01,Wunderground v.1.15,2013-09-01 21:12:00,
2013-09-01 17:13:00,76.0,72.5,29.82,South,181,0.0,1.0,89,0.00,,,0.01,Wunderground v.1.15,2013-09-01 21:13:00,
2013-09-01 17:14:00,76.1,72.6,29.81,South,181,0.0,2.0,89,0.00,,,0.01,Wunderground v.1.15,2013-09-01 21:14:00,
2013-09-01 17:15:00,76.1,72.6,29.82,South,182,0.0,2.0,89,0.00,,,0.01,Wunderground v.1.15,2013-09-01 21:15:00,
2013-09-01 17:17:00,76.1,72.6,29.82,South,182,0.0,2.0,89,0.00,,,0.01,Wunderground v.1.15,2013-09-01 21:17:00,
2013-09-01 17:18:00,76.1,72.6,29.82,South,181,0.0,2.0,89,0.00,,,0.01,Wunderground v.1.15,2013-09-01 21:18:00,
2013-09-01 17:19:00,76.1,72.6,29.82,South,182,1.0,2.0,89,0.00,,,0.01,Wunderground v.1.15,2013-09-01 21:19:00,
2013-09-01 17:20:00,76.1,72.6,29.81,South,182,0.0,1.0,89,0.00,,,0.01,Wunderground v.1.15,2013-09-01 21:20:00,
2013-09-01 17:21:00,76.1,72.6,29.81,South,182,0.0,1.0,89,0.00,,,0.01,Wunderground v.1.15,2013-09-01 21:21:00,
2013-09-01 17:23:00,76.1,72.6,29.81,South,178,0.0,2.0,89,0.00,,,0.01,Wunderground v.1.15,2013-09-01 21:23:00,
2013-09-01 17:25:00,76.1,72.6,29.81,South,178,0.0,2.0,89,0.00,,,0.01,Wunderground v.1.15,2013-09-01 21:25:00,
2013-09-01 17:26:00,76.1,72.6,29.81,South,178,0.0,2.0,89,0.00,,,0.01,Wunderground v.1.15,2013-09-01 21:26:00,
2013-09-01 17:28:00,76.1,73.0,29.81,South,178,0.0,3.0,90,0.00,,,0.01,Wunderground v.1.15,2013-09-01 21:28:00,
2013-09-01 17:30:00,76.3,73.1,29.81,SSE,156,0.0,2.0,90,0.00,,,0.01,Wunderground v.1.15,2013-09-01 21:30:00,
2013-09-01 17:31:00,76.3,73.1,29.81,SSE,157,0.0,2.0,90,0.00,,,0.01,Wunderground v.1.15,2013-09-01 21:31:00,
2013-09-01 17:33:00,76.3,73.1,29.81,SSE,157,0.0,2.0,90,0.00,,,0.01,Wunderground v.1.15,2013-09-01 21:33:00,
2013-09-01 17:35:00,76.3,73.1,29.81,SSE,156,0.0,2.0,90,0.00,,,0.01,Wunderground v.1.15,2013-09-01 21:35:00,
2013-09-01 17:36:00,76.3,73.1,29.81,SSE,156,0.0,2.0,90,0.00,,,0.01,Wunderground v.1.15,2013-09-01 21:36:00,
2013-09-01 17:38:00,76.3,73.1,29.81,SSE,157,0.0,2.0,90,0.00,,,0.01,Wunderground v.1.15,2013-09-01 21:38:00,
2013-09-01 17:39:00,76.3,73.1,29.81,SSE,157,0.0,2.0,90,0.00,,,0.01,Wunderground v.1.15,2013-09-01 21:39:00,
2013-09-01 17:40:00,76.3,73.1,29.81,SSE,156,0.0,0.0,90,0.00,,,0.01,Wunderground v.1.15,2013-09-01 21:40:00,
2013-09-01 17:41:00,76.3,73.1,29.81,SSE,157,0.0,0.0,90,0.00,,,0.02,Wunderground v.1.15,2013-09-01 21:41:00,
2013-09-01 17:44:00,76.3,73.1,29.81,SSE,156,0.0,0.0,90,0.00,,,0.02,Wunderground v.1.15,2013-09-01 21:44:00,
2013-09-01 17:45:00,76.3,73.1,29.81,SSE,157,0.0,1.0,90,0.00,,,0.02,Wunderground v.1.15,2013-09-01 21:45:00,
2013-09-01 17:46:00,76.3,73.1,29.81,SSE,157,0.0,1.0,90,0.00,,,0.02,Wunderground v.1.15,2013-09-01 21:46:00,
2013-09-01 17:47:00,76.3,73.1,29.81,SSE,157,1.0,1.0,90,0.00,,,0.02,Wunderground v.1.15,2013-09-01 21:47:00,
2013-09-01 17:48:00,76.3,73.1,29.81,SSE,157,0.0,1.0,90,0.00,,,0.02,Wunderground v.1.15,2013-09-01 21:48:00,
2013-09-01 17:49:00,76.3,73.1,29.81,SSE,157,1.0,2.0,90,0.00,,,0.02,Wunderground v.1.15,2013-09-01 21:49:00,
2013-09-01 17:50:00,76.3,73.1,29.81,SSE,157,0.0,0.0,90,0.00,,,0.02,Wunderground v.1.15,2013-09-01 21:50:00,
2013-09-01 17:52:00,76.1,73.0,29.81,WSW,253,2.0,3.0,90,0.00,,,0.02,Wunderground v.1.15,2013-09-01 21:52:00,
2013-09-01 17:54:00,76.1,73.0,29.81,WSW,253,0.0,3.0,90,0.00,,,0.02,Wunderground v.1.15,2013-09-01 21:54:00,
2013-09-01 17:56:00,76.0,72.9,29.80,WSW,253,0.0,3.0,90,0.00,,,0.02,Wunderground v.1.15,2013-09-01 21:56:00,
2013-09-01 17:57:00,76.0,72.9,29.80,WSW,253,0.0,3.0,90,0.00,,,0.02,Wunderground v.1.15,2013-09-01 21:57:00,
2013-09-01 17:59:00,76.0,72.9,29.80,WSW,253,0.0,3.0,90,0.00,,,0.02,Wunderground v.1.15,2013-09-01 21:59:00,
2013-09-01 18:02:00,76.0,72.9,29.80,WSW,253,0.0,0.0,90,0.00,,,0.02,Wunderground v.1.15,2013-09-01 22:02:00,
2013-09-01 18:03:00,75.8,72.7,29.81,WSW,253,0.0,0.0,90,0.00,,,0.02,Wunderground v.1.15,2013-09-01 22:03:00,
2013-09-01 18:04:00,75.8,72.7,29.81,WSW,253,0.0,0.0,90,0.00,,,0.02,Wunderground v.1.15,2013-09-01 22:04:00,
2013-09-01 18:05:00,75.8,72.7,29.81,WSW,253,0.0,0.0,90,0.00,,,0.02,Wunderground v.1.15,2013-09-01 22:05:00,
2013-09-01 18:07:00,75.6,72.5,29.80,WSW,253,0.0,0.0,90,0.00,,,0.02,Wunderground v.1.15,2013-09-01 22:07:00,
2013-09-01 18:08:00,75.6,72.5,29.80,WSW,253,0.0,0.0,90,0.00,,,0.02,Wunderground v.1.15,2013-09-01 22:08:00,
2013-09-01 18:09:00,75.6,72.5,29.80,WSW,253,0.0,1.0,90,0.00,,,0.02,Wunderground v.1.15,2013-09-01 22:09:00,
2013-09-01 18:10:00,75.4,72.3,29.80,WSW,253,0.0,0.0,90,0.00,,,0.02,Wunderground v.1.15,2013-09-01 22:10:00,
2013-09-01 18:13:00,75.3,72.2,29.80,WSW,253,0.0,1.0,90,0.00,,,0.02,Wunderground v.1.15,2013-09-01 22:13:00,
2013-09-01 18:14:00,75.3,72.2,29.80,WSW,253,0.0,1.0,90,0.00,,,0.02,Wunderground v.1.15,2013-09-01 22:14:00,
2013-09-01 18:15:00,75.1,72.0,29.80,WSW,253,0.0,1.0,90,0.00,,,0.02,Wunderground v.1.15,2013-09-01 22:15:00,
2013-09-01 18:16:00,75.1,72.0,29.80,WSW,253,0.0,1.0,90,0.00,,,0.02,Wunderground v.1.15,2013-09-01 22:16:00,
2013-09-01 18:19:00,75.1,72.0,29.80,WSW,253,0.0,1.0,90,0.00,,,0.02,Wunderground v.1.15,2013-09-01 22:19:00,
2013-09-01 18:20:00,75.1,72.0,29.80,WSW,253,0.0,0.0,90,0.00,,,0.02,Wunderground v.1.15,2013-09-01 22:20:00,
2013-09-01 18:22:00,75.1,72.0,29.80,WSW,253,0.0,0.0,90,0.00,,,0.02,Wunderground v.1.15,2013-09-01 22:22:00,
2013-09-01 18:24:00,74.9,71.8,29.80,WSW,253,0.0,0.0,90,0.00,,,0.02,Wunderground v.1.15,2013-09-01 22:24:00,
2013-09-01 18:25:00,74.9,71.8,29.80,WSW,253,0.0,0.0,90,0.00,,,0.03,Wunderground v.1.15,2013-09-01 22:25:00,
2013-09-01 18:27:00,74.9,71.8,29.80,WSW,253,0.0,0.0,90,0.00,,,0.03,Wunderground v.1.15,2013-09-01 22:27:00,
2013-09-01 18:29:00,74.9,71.8,29.80,WSW,253,0.0,0.0,90,0.00,,,0.03,Wunderground v.1.15,2013-09-01 22:29:00,
2013-09-01 18:30:00,74.9,71.8,29.80,WSW,253,0.0,0.0,90,0.00,,,0.03,Wunderground v.1.15,2013-09-01 22:30:00,
2013-09-01 18:32:00,74.9,71.8,29.80,WSW,253,0.0,0.0,90,0.00,,,0.03,Wunderground v.1.15,2013-09-01 22:32:00,
2013-09-01 18:34:00,74.9,71.8,29.80,WSW,253,0.0,0.0,90,0.00,,,0.03,Wunderground v.1.15,2013-09-01 22:34:00,
2013-09-01 18:35:00,74.9,71.8,29.80,WSW,253,0.0,0.0,90,0.00,,,0.03,Wunderground v.1.15,2013-09-01 22:35:00,
2013-09-01 18:36:00,74.9,71.8,29.80,WSW,253,0.0,0.0,90,0.00,,,0.03,Wunderground v.1.15,2013-09-01 22:36:00,
2013-09-01 18:37:00,74.9,71.8,29.80,WSW,253,0.0,0.0,90,0.00,,,0.03,Wunderground v.1.15,2013-09-01 22:37:00,
2013-09-01 18:39:00,75.1,72.3,29.80,WSW,253,0.0,0.0,91,0.00,,,0.03,Wunderground v.1.15,2013-09-01 22:39:00,
2013-09-01 18:40:00,75.1,72.3,29.81,WSW,253,0.0,0.0,91,0.00,,,0.03,Wunderground v.1.15,2013-09-01 22:40:00,
2013-09-01 18:41:00,75.1,72.3,29.81,WSW,253,0.0,0.0,91,0.00,,,0.03,Wunderground v.1.15,2013-09-01 22:41:00,
2013-09-01 18:43:00,75.1,72.3,29.80,WSW,253,0.0,0.0,91,0.00,,,0.03,Wunderground v.1.15,2013-09-01 22:43:00,
2013-09-01 18:45:00,75.1,72.3,29.81,WSW,253,0.0,0.0,91,0.00,,,0.03,Wunderground v.1.15,2013-09-01 22:45:00,
2013-09-01 18:46:00,75.1,72.3,29.81,WSW,253,0.0,0.0,91,0.00,,,0.03,Wunderground v.1.15,2013-09-01 22:46:00,
2013-09-01 18:50:00,74.9,72.1,29.81,WSW,253,0.0,0.0,91,0.00,,,0.03,Wunderground v.1.15,2013-09-01 22:50:00,
2013-09-01 18:51:00,74.9,72.1,29.81,WSW,253,0.0,0.0,91,0.00,,,0.03,Wunderground v.1.15,2013-09-01 22:51:00,
2013-09-01 18:52:00,74.9,72.1,29.81,WSW,253,0.0,0.0,91,0.00,,,0.03,Wunderground v.1.15,2013-09-01 22:52:00,
2013-09-01 18:55:00,75.1,72.3,29.81,WSW,253,0.0,0.0,91,0.00,,,0.03,Wunderground v.1.15,2013-09-01 22:55:00,
2013-09-01 18:56:00,75.1,72.3,29.81,WSW,253,0.0,0.0,91,0.00,,,0.03,Wunderground v.1.15,2013-09-01 22:56:00,
2013-09-01 18:58:00,75.1,72.3,29.82,WSW,253,0.0,0.0,91,0.00,,,0.03,Wunderground v.1.15,2013-09-01 22:58:00,
2013-09-01 19:00:00,74.9,72.1,29.82,WSW,253,0.0,0.0,91,0.00,,,0.03,Wunderground v.1.15,2013-09-01 23:00:00,
2013-09-01 19:01:00,74.9,72.1,29.82,WSW,253,0.0,0.0,91,0.00,,,0.03,Wunderground v.1.15,2013-09-01 23:01:00,
2013-09-01 19:02:00,74.9,72.1,29.82,WSW,253,0.0,0.0,91,0.00,,,0.03,Wunderground v.1.15,2013-09-01 23:02:00,
2013-09-01 19:03:00,74.9,72.1,29.82,WSW,253,0.0,0.0,91,0.00,,,0.03,Wunderground v.1.15,2013-09-01 23:03:00,
2013-09-01 19:05:00,74.9,72.1,29.82,WSW,253,0.0,0.0,91,0.00,,,0.03,Wunderground v.1.15,2013-09-01 23:05:00,
2013-09-01 19:06:00,74.9,72.1,29.82,WSW,253,0.0,0.0,91,0.00,,,0.03,Wunderground v.1.15,2013-09-01 23:06:00,
2013-09-01 19:07:00,74.9,72.1,29.82,WSW,253,0.0,0.0,91,0.00,,,0.03,Wunderground v.1.15,2013-09-01 23:07:00,
2013-09-01 19:08:00,75.1,72.3,29.82,WSW,253,0.0,0.0,91,0.00,,,0.03,Wunderground v.1.15,2013-09-01 23:08:00,
2013-09-01 19:11:00,75.1,72.3,29.82,WSW,253,0.0,0.0,91,0.00,,,0.03,Wunderground v.1.15,2013-09-01 23:11:00,
2013-09-01 19:12:00,75.1,72.3,29.82,WSW,253,0.0,0.0,91,0.00,,,0.03,Wunderground v.1.15,2013-09-01 23:12:00,
2013-09-01 19:14:00,75.1,72.3,29.82,WSW,253,0.0,0.0,91,0.00,,,0.03,Wunderground v.1.15,2013-09-01 23:14:00,
2013-09-01 19:15:00,75.1,72.3,29.82,WSW,253,0.0,0.0,91,0.00,,,0.03,Wunderground v.1.15,2013-09-01 23:15:00,
2013-09-01 19:16:00,75.1,72.3,29.82,WSW,253,0.0,0.0,91,0.00,,,0.03,Wunderground v.1.15,2013-09-01 23:16:00,
2013-09-01 19:17:00,75.1,72.3,29.82,WSW,253,0.0,0.0,91,0.00,,,0.03,Wunderground v.1.15,2013-09-01 23:17:00,
2013-09-01 19:18:00,75.1,72.3,29.82,WSW,253,0.0,0.0,91,0.00,,,0.03,Wunderground v.1.15,2013-09-01 23:18:00,
2013-09-01 19:20:00,75.1,72.3,29.82,WSW,253,0.0,0.0,91,0.00,,,0.03,Wunderground v.1.15,2013-09-01 23:20:00,
2013-09-01 19:21:00,75.1,72.3,29.82,WSW,253,0.0,0.0,91,0.00,,,0.03,Wunderground v.1.15,2013-09-01 23:21:00,
2013-09-01 19:22:00,75.1,72.3,29.82,WSW,253,0.0,0.0,91,0.00,,,0.03,Wunderground v.1.15,2013-09-01 23:22:00,
2013-09-01 19:23:00,75.1,72.3,29.82,WSW,253,0.0,0.0,91,0.00,,,0.03,Wunderground v.1.15,2013-09-01 23:23:00,
2013-09-01 19:25:00,74.9,72.4,29.82,WSW,253,0.0,0.0,92,0.00,,,0.03,Wunderground v.1.15,2013-09-01 23:25:00,
2013-09-01 19:26:00,74.9,72.4,29.82,WSW,253,0.0,0.0,92,0.00,,,0.03,Wunderground v.1.15,2013-09-01 23:26:00,
2013-09-01 19:28:00,74.9,72.1,29.82,WSW,253,0.0,0.0,91,0.00,,,0.03,Wunderground v.1.15,2013-09-01 23:28:00,
2013-09-01 19:30:00,74.9,72.4,29.82,WSW,253,0.0,0.0,92,0.00,,,0.03,Wunderground v.1.15,2013-09-01 23:30:00,
2013-09-01 19:31:00,74.9,72.4,29.82,WSW,253,0.0,0.0,92,0.00,,,0.03,Wunderground v.1.15,2013-09-01 23:31:00,
2013-09-01 19:33:00,74.9,72.4,29.81,WSW,253,0.0,0.0,92,0.00,,,0.03,Wunderground v.1.15,2013-09-01 23:33:00,
2013-09-01 19:34:00,74.9,72.4,29.82,WSW,253,0.0,0.0,92,0.00,,,0.03,Wunderground v.1.15,2013-09-01 23:34:00,
2013-09-01 19:36:00,74.9,72.4,29.82,WSW,253,0.0,0.0,92,0.00,,,0.03,Wunderground v.1.15,2013-09-01 23:36:00,
2013-09-01 19:37:00,74.9,72.4,29.82,WSW,252,0.0,0.0,92,0.00,,,0.03,Wunderground v.1.15,2013-09-01 23:37:00,
2013-09-01 19:38:00,74.9,72.4,29.82,WSW,252,0.0,0.0,92,0.00,,,0.03,Wunderground v.1.15,2013-09-01 23:38:00,
2013-09-01 19:39:00,74.9,72.4,29.82,WSW,252,0.0,0.0,92,0.00,,,0.03,Wunderground v.1.15,2013-09-01 23:39:00,
2013-09-01 19:41:00,74.9,72.4,29.82,WSW,252,0.0,0.0,92,0.00,,,0.03,Wunderground v.1.15,2013-09-01 23:41:00,
2013-09-01 19:42:00,74.7,72.2,29.82,WSW,252,0.0,0.0,92,0.00,,,0.03,Wunderground v.1.15,2013-09-01 23:42:00,
2013-09-01 19:44:00,74.7,72.2,29.81,WSW,252,0.0,0.0,92,0.00,,,0.03,Wunderground v.1.15,2013-09-01 23:44:00,
2013-09-01 19:45:00,74.7,72.2,29.81,WSW,252,0.0,0.0,92,0.00,,,0.03,Wunderground v.1.15,2013-09-01 23:45:00,
2013-09-01 19:46:00,74.7,72.2,29.81,WSW,252,0.0,0.0,92,0.00,,,0.03,Wunderground v.1.15,2013-09-01 23:46:00,
2013-09-01 19:47:00,74.7,72.2,29.81,WSW,252,0.0,0.0,92,0.00,,,0.03,Wunderground v.1.15,2013-09-01 23:47:00,
2013-09-01 19:49:00,74.7,72.2,29.81,WSW,252,0.0,0.0,92,0.00,,,0.03,Wunderground v.1.15,2013-09-01 23:49:00,
2013-09-01 19:50:00,74.7,72.2,29.81,WSW,252,0.0,0.0,92,0.00,,,0.03,Wunderground v.1.15,2013-09-01 23:50:00,
2013-09-01 19:51:00,74.7,72.2,29.81,WSW,252,0.0,0.0,92,0.00,,,0.03,Wunderground v.1.15,2013-09-01 23:51:00,
2013-09-01 19:53:00,74.7,72.2,29.81,SSE,154,0.0,2.0,92,0.00,,,0.03,Wunderground v.1.15,2013-09-01 23:53:00,
2013-09-01 19:54:00,74.6,72.1,29.81,SSE,154,0.0,2.0,92,0.00,,,0.03,Wunderground v.1.15,2013-09-01 23:54:00,
2013-09-01 19:55:00,74.6,72.1,29.81,SSE,154,0.0,2.0,92,0.00,,,0.03,Wunderground v.1.15,2013-09-01 23:55:00,
2013-09-01 19:56:00,74.6,72.1,29.81,SSE,154,0.0,2.0,92,0.00,,,0.03,Wunderground v.1.15,2013-09-01 23:56:00,
2013-09-01 19:58:00,74.6,72.1,29.81,SSE,154,0.0,2.0,92,0.00,,,0.03,Wunderground v.1.15,2013-09-01 23:58:00,
2013-09-01 19:59:00,74.6,72.1,29.81,SSE,150,0.0,2.0,92,0.00,,,0.03,Wunderground v.1.15,2013-09-01 23:59:00,
2013-09-01 20:00:00,74.4,71.9,29.81,SSE,150,0.0,0.0,92,0.00,,,0.03,Wunderground v.1.15,2013-09-02 00:00:00,
2013-09-01 20:02:00,74.4,71.9,29.81,SSE,150,0.0,0.0,92,0.00,,,0.03,Wunderground v.1.15,2013-09-02 00:02:00,
2013-09-01 20:03:00,74.4,71.9,29.81,SSE,150,0.0,0.0,92,0.00,,,0.03,Wunderground v.1.15,2013-09-02 00:03:00,
2013-09-01 20:05:00,74.4,71.9,29.81,SSE,158,0.0,1.0,92,0.00,,,0.03,Wunderground v.1.15,2013-09-02 00:05:00,
2013-09-01 20:06:00,74.2,71.7,29.81,SSE,158,0.0,1.0,92,0.00,,,0.03,Wunderground v.1.15,2013-09-02 00:06:00,
2013-09-01 20:07:00,74.2,71.7,29.81,SSE,159,0.0,1.0,92,0.00,,,0.03,Wunderground v.1.15,2013-09-02 00:07:00,
2013-09-01 20:08:00,74.2,71.7,29.81,SSE,159,0.0,1.0,92,0.00,,,0.03,Wunderground v.1.15,2013-09-02 00:08:00,
2013-09-01 20:10:00,74.2,72.0,29.82,SSE,159,0.0,0.0,93,0.00,,,0.03,Wunderground v.1.15,2013-09-02 00:10:00,
2013-09-01 20:11:00,74.2,72.0,29.82,SSE,159,0.0,0.0,93,0.00,,,0.03,Wunderground v.1.15,2013-09-02 00:11:00,
2013-09-01 20:13:00,74.0,71.8,29.82,SSE,159,0.0,0.0,93,0.00,,,0.03,Wunderground v.1.15,2013-09-02 00:13:00,
2013-09-01 20:14:00,74.0,71.8,29.82,SSE,159,0.0,0.0,93,0.00,,,0.03,Wunderground v.1.15,2013-09-02 00:14:00,
2013-09-01 20:16:00,74.0,71.8,29.82,SSE,159,0.0,0.0,93,0.00,,,0.03,Wunderground v.1.15,2013-09-02 00:16:00,
2013-09-01 20:17:00,74.0,71.8,29.82,SSE,159,0.0,0.0,93,0.00,,,0.03,Wunderground v.1.15,2013-09-02 00:17:00,
2013-09-01 20:18:00,74.0,71.8,29.82,SSE,159,0.0,0.0,93,0.00,,,0.03,Wunderground v.1.15,2013-09-02 00:18:00,
2013-09-01 20:21:00,74.0,71.8,29.82,SSE,159,0.0,0.0,93,0.00,,,0.03,Wunderground v.1.15,2013-09-02 00:21:00,
2013-09-01 20:24:00,74.2,72.0,29.82,SSE,159,0.0,0.0,93,0.00,,,0.03,Wunderground v.1.15,2013-09-02 00:24:00,
2013-09-01 20:26:00,74.2,72.0,29.82,SSE,159,0.0,0.0,93,0.00,,,0.03,Wunderground v.1.15,2013-09-02 00:26:00,
2013-09-01 20:29:00,74.2,72.0,29.82,SSE,159,0.0,0.0,93,0.00,,,0.03,Wunderground v.1.15,2013-09-02 00:29:00,
2013-09-01 20:30:00,74.2,72.0,29.82,SSE,159,0.0,0.0,93,0.00,,,0.03,Wunderground v.1.15,2013-09-02 00:30:00,
2013-09-01 20:31:00,74.2,72.0,29.82,SSE,159,0.0,0.0,93,0.00,,,0.03,Wunderground v.1.15,2013-09-02 00:31:00,
2013-09-01 20:32:00,74.4,72.2,29.82,SSE,159,0.0,0.0,93,0.00,,,0.03,Wunderground v.1.15,2013-09-02 00:32:00,
2013-09-01 20:34:00,74.4,72.2,29.82,SSE,159,0.0,0.0,93,0.00,,,0.03,Wunderground v.1.15,2013-09-02 00:34:00,
2013-09-01 20:35:00,74.6,72.4,29.82,SSE,154,5.0,6.0,93,0.00,,,0.03,Wunderground v.1.15,2013-09-02 00:35:00,
2013-09-01 20:37:00,74.6,72.4,29.82,SSE,154,0.0,6.0,93,0.00,,,0.03,Wunderground v.1.15,2013-09-02 00:37:00,
2013-09-01 20:39:00,74.6,72.4,29.82,SSE,154,0.0,6.0,93,0.00,,,0.03,Wunderground v.1.15,2013-09-02 00:39:00,
2013-09-01 20:41:00,74.7,72.5,29.83,SSE,154,0.0,0.0,93,0.00,,,0.03,Wunderground v.1.15,2013-09-02 00:41:00,
2013-09-01 20:42:00,74.7,72.5,29.82,SSE,154,0.0,3.0,93,0.00,,,0.03,Wunderground v.1.15,2013-09-02 00:42:00,
2013-09-01 20:44:00,74.7,72.5,29.82,SSE,154,0.0,3.0,93,0.00,,,0.03,Wunderground v.1.15,2013-09-02 00:44:00,
2013-09-01 20:46:00,74.7,72.5,29.83,SSE,166,0.0,5.0,93,0.00,,,0.03,Wunderground v.1.15,2013-09-02 00:46:00,
2013-09-01 20:47:00,74.7,72.5,29.82,SW,234,0.0,5.0,93,0.00,,,0.03,Wunderground v.1.15,2013-09-02 00:47:00,
2013-09-01 20:48:00,74.7,72.5,29.83,SW,233,0.0,5.0,93,0.00,,,0.03,Wunderground v.1.15,2013-09-02 00:48:00,
2013-09-01 20:49:00,74.7,72.5,29.83,WNW,302,0.0,5.0,93,0.00,,,0.03,Wunderground v.1.15,2013-09-02 00:49:00,
2013-09-01 20:51:00,74.9,72.7,29.83,SSE,166,1.0,7.0,93,0.00,,,0.03,Wunderground v.1.15,2013-09-02 00:51:00,
2013-09-01 20:52:00,74.9,72.7,29.83,SSE,166,0.0,7.0,93,0.00,,,0.03,Wunderground v.1.15,2013-09-02 00:52:00,
2013-09-01 20:53:00,74.9,72.7,29.83,SSE,166,0.0,7.0,93,0.00,,,0.03,Wunderground v.1.15,2013-09-02 00:53:00,
2013-09-01 20:54:00,74.9,72.7,29.83,SSE,166,0.0,7.0,93,0.00,,,0.03,Wunderground v.1.15,2013-09-02 00:54:00,
2013-09-01 20:56:00,74.9,72.7,29.83,SSE,160,3.0,7.0,93,0.00,,,0.03,Wunderground v.1.15,2013-09-02 00:56:00,
2013-09-01 20:57:00,74.9,72.7,29.83,West,271,2.0,7.0,93,0.00,,,0.03,Wunderground v.1.15,2013-09-02 00:57:00,
2013-09-01 20:58:00,74.9,72.7,29.83,West,271,0.0,7.0,93,0.00,,,0.03,Wunderground v.1.15,2013-09-02 00:58:00,
2013-09-01 20:59:00,74.9,72.7,29.83,West,271,0.0,7.0,93,0.00,,,0.03,Wunderground v.1.15,2013-09-02 00:59:00,
2013-09-01 21:02:00,74.9,72.7,29.83,SSE,147,1.0,4.0,93,0.00,,,0.03,Wunderground v.1.15,2013-09-02 01:02:00,
2013-09-01 21:03:00,74.9,72.7,29.83,South,175,3.0,4.0,93,0.00,,,0.03,Wunderground v.1.15,2013-09-02 01:03:00,
2013-09-01 21:04:00,74.9,72.7,29.83,South,175,0.0,4.0,93,0.00,,,0.03,Wunderground v.1.15,2013-09-02 01:04:00,
2013-09-01 21:05:00,74.9,72.7,29.83,South,175,1.0,4.0,93,0.00,,,0.03,Wunderground v.1.15,2013-09-02 01:05:00,
2013-09-01 21:08:00,74.9,72.7,29.83,South,175,0.0,4.0,93,0.00,,,0.03,Wunderground v.1.15,2013-09-02 01:08:00,
2013-09-01 21:09:00,74.9,72.7,29.83,South,175,0.0,0.0,93,0.00,,,0.03,Wunderground v.1.15,2013-09-02 01:09:00,
2013-09-01 21:10:00,74.9,72.7,29.83,South,175,0.0,0.0,93,0.00,,,0.03,Wunderground v.1.15,2013-09-02 01:10:00,
2013-09-01 21:11:00,75.1,72.9,29.83,SE,130,4.0,10.0,93,0.00,,,0.03,Wunderground v.1.15,2013-09-02 01:11:00,
2013-09-01 21:13:00,75.1,72.9,29.83,SE,130,0.0,10.0,93,0.00,,,0.03,Wunderground v.1.15,2013-09-02 01:13:00,
2013-09-01 21:14:00,75.1,72.9,29.83,SE,130,0.0,10.0,93,0.00,,,0.03,Wunderground v.1.15,2013-09-02 01:14:00,
2013-09-01 21:15:00,75.1,72.9,29.83,SE,130,0.0,10.0,93,0.00,,,0.03,Wunderground v.1.15,2013-09-02 01:15:00,
2013-09-01 21:17:00,75.1,72.9,29.83,SE,130,0.0,10.0,93,0.00,,,0.03,Wunderground v.1.15,2013-09-02 01:17:00,
2013-09-01 21:19:00,75.1,72.9,29.83,SE,130,0.0,10.0,93,0.00,,,0.03,Wunderground v.1.15,2013-09-02 01:19:00,
2013-09-01 21:20:00,75.1,72.9,29.83,SE,130,0.0,1.0,93,0.00,,,0.03,Wunderground v.1.15,2013-09-02 01:20:00,
2013-09-01 21:21:00,75.1,72.9,29.83,SE,130,0.0,1.0,93,0.00,,,0.03,Wunderground v.1.15,2013-09-02 01:21:00,
2013-09-01 21:24:00,75.3,73.1,29.83,SSW,211,1.0,2.0,93,0.00,,,0.03,Wunderground v.1.15,2013-09-02 01:24:00,
2013-09-01 21:25:00,75.3,73.1,29.83,SSW,211,0.0,3.0,93,0.00,,,0.03,Wunderground v.1.15,2013-09-02 01:25:00,
2013-09-01 21:26:00,75.3,73.1,29.83,SSW,211,0.0,3.0,93,0.00,,,0.03,Wunderground v.1.15,2013-09-02 01:26:00,
2013-09-01 21:29:00,75.3,73.1,29.83,SE,136,0.0,0.0,93,0.00,,,0.03,Wunderground v.1.15,2013-09-02 01:29:00,
2013-09-01 21:30:00,75.3,73.1,29.83,SE,136,0.0,0.0,93,0.00,,,0.03,Wunderground v.1.15,2013-09-02 01:30:00,
2013-09-01 21:31:00,75.3,73.1,29.83,SE,136,0.0,1.0,93,0.00,,,0.03,Wunderground v.1.15,2013-09-02 01:31:00,
2013-09-01 21:32:00,75.3,73.1,29.83,SE,136,0.0,1.0,93,0.00,,,0.03,Wunderground v.1.15,2013-09-02 01:32:00,
2013-09-01 21:34:00,75.3,73.5,29.83,NNE,33,0.0,2.0,94,0.00,,,0.03,Wunderground v.1.15,2013-09-02 01:34:00,
2013-09-01 21:35:00,75.3,73.1,29.83,NNE,33,0.0,2.0,93,0.00,,,0.03,Wunderground v.1.15,2013-09-02 01:35:00,
2013-09-01 21:36:00,75.3,73.1,29.83,NNE,33,0.0,2.0,93,0.00,,,0.03,Wunderground v.1.15,2013-09-02 01:36:00,
2013-09-01 21:37:00,75.3,73.1,29.83,NNE,33,0.0,2.0,93,0.00,,,0.03,Wunderground v.1.15,2013-09-02 01:37:00,
2013-09-01 21:39:00,75.3,73.1,29.83,NNE,33,0.0,0.0,93,0.00,,,0.03,Wunderground v.1.15,2013-09-02 01:39:00,
2013-09-01 21:41:00,75.3,73.1,29.83,SW,229,0.0,4.0,93,0.00,,,0.03,Wunderground v.1.15,2013-09-02 01:41:00,
2013-09-01 21:42:00,75.3,73.1,29.83,SW,229,0.0,4.0,93,0.00,,,0.03,Wunderground v.1.15,2013-09-02 01:42:00,
2013-09-01 21:44:00,75.3,73.1,29.84,SW,229,0.0,4.0,93,0.00,,,0.03,Wunderground v.1.15,2013-09-02 01:44:00,
2013-09-01 21:46:00,75.3,73.1,29.83,SW,230,0.0,4.0,93,0.00,,,0.03,Wunderground v.1.15,2013-09-02 01:46:00,
2013-09-01 21:47:00,75.3,73.1,29.83,SW,230,0.0,4.0,93,0.00,,,0.03,Wunderground v.1.15,2013-09-02 01:47:00,
2013-09-01 21:48:00,75.3,73.1,29.83,SW,227,0.0,4.0,93,0.00,,,0.03,Wunderground v.1.15,2013-09-02 01:48:00,
2013-09-01 21:50:00,75.3,73.1,29.83,SW,227,0.0,0.0,93,0.00,,,0.03,Wunderground v.1.15,2013-09-02 01:50:00,
2013-09-01 21:51:00,75.3,73.1,29.84,SW,227,1.0,1.0,93,0.00,,,0.03,Wunderground v.1.15,2013-09-02 01:51:00,
2013-09-01 21:52:00,75.3,73.1,29.83,SW,227,0.0,1.0,93,0.00,,,0.03,Wunderground v.1.15,2013-09-02 01:52:00,
2013-09-01 21:53:00,75.3,73.1,29.84,SW,227,0.0,1.0,93,0.00,,,0.03,Wunderground v.1.15,2013-09-02 01:53:00,
2013-09-01 21:55:00,75.3,73.1,29.84,SW,227,0.0,1.0,93,0.00,,,0.03,Wunderground v.1.15,2013-09-02 01:55:00,
2013-09-01 21:56:00,75.3,73.1,29.84,SW,227,0.0,1.0,93,0.00,,,0.03,Wunderground v.1.15,2013-09-02 01:56:00,
2013-09-01 21:58:00,75.3,73.1,29.83,SW,227,0.0,1.0,93,0.00,,,0.03,Wunderground v.1.15,2013-09-02 01:58:00,
2013-09-01 22:00:00,75.3,73.1,29.83,SW,227,0.0,1.0,93,0.00,,,0.03,Wunderground v.1.15,2013-09-02 02:00:00,
2013-09-01 22:01:00,75.3,73.1,29.83,SW,227,0.0,1.0,93,0.00,,,0.03,Wunderground v.1.15,2013-09-02 02:01:00,
2013-09-01 22:03:00,75.3,73.1,29.83,SW,227,0.0,1.0,93,0.00,,,0.03,Wunderground v.1.15,2013-09-02 02:03:00,
2013-09-01 22:05:00,75.3,73.1,29.83,SSW,208,0.0,2.0,93,0.00,,,0.03,Wunderground v.1.15,2013-09-02 02:05:00,
2013-09-01 22:06:00,75.3,73.1,29.83,SSW,208,0.0,2.0,93,0.00,,,0.03,Wunderground v.1.15,2013-09-02 02:06:00,
2013-09-01 22:08:00,75.3,73.1,29.84,SSW,208,0.0,2.0,93,0.00,,,0.03,Wunderground v.1.15,2013-09-02 02:08:00,
2013-09-01 22:11:00,75.3,73.1,29.84,SSW,208,0.0,0.0,93,0.00,,,0.03,Wunderground v.1.15,2013-09-02 02:11:00,
2013-09-01 22:13:00,75.3,73.1,29.83,SSW,208,0.0,2.0,93,0.00,,,0.03,Wunderground v.1.15,2013-09-02 02:13:00,
2013-09-01 22:14:00,75.3,73.1,29.83,SSW,213,0.0,2.0,93,0.00,,,0.03,Wunderground v.1.15,2013-09-02 02:14:00,
2013-09-01 22:16:00,75.3,73.1,29.83,SSW,213,0.0,2.0,93,0.00,,,0.03,Wunderground v.1.15,2013-09-02 02:16:00,
2013-09-01 22:18:00,75.3,73.1,29.83,SSW,213,0.0,2.0,93,0.00,,,0.03,Wunderground v.1.15,2013-09-02 02:18:00,
2013-09-01 22:19:00,75.3,73.1,29.83,SSW,213,0.0,0.0,93,0.00,,,0.03,Wunderground v.1.15,2013-09-02 02:19:00,
2013-09-01 22:20:00,75.3,73.1,29.83,SSW,213,0.0,0.0,93,0.00,,,0.03,Wunderground v.1.15,2013-09-02 02:20:00,
2013-09-01 22:21:00,75.1,72.9,29.83,SSW,213,0.0,0.0,93,0.00,,,0.03,Wunderground v.1.15,2013-09-02 02:21:00,
2013-09-01 22:22:00,75.1,72.9,29.83,SSW,213,0.0,0.0,93,0.00,,,0.03,Wunderground v.1.15,2013-09-02 02:22:00,
2013-09-01 22:23:00,75.1,72.9,29.83,SSW,213,0.0,0.0,93,0.00,,,0.03,Wunderground v.1.15,2013-09-02 02:23:00,
2013-09-01 22:25:00,75.1,72.9,29.83,SSW,213,0.0,0.0,93,0.00,,,0.03,Wunderground v.1.15,2013-09-02 02:25:00,
2013-09-01 22:26:00,75.1,72.9,29.83,SSW,213,0.0,0.0,93,0.00,,,0.03,Wunderground v.1.15,2013-09-02 02:26:00,
2013-09-01 22:27:00,75.1,72.9,29.83,SSW,213,0.0,0.0,93,0.00,,,0.03,Wunderground v.1.15,2013-09-02 02:27:00,
2013-09-01 22:30:00,75.1,72.9,29.83,SSW,213,0.0,0.0,93,0.00,,,0.03,Wunderground v.1.15,2013-09-02 02:30:00,
2013-09-01 22:31:00,75.1,72.9,29.83,SSW,213,0.0,0.0,93,0.00,,,0.03,Wunderground v.1.15,2013-09-02 02:31:00,
2013-09-01 22:32:00,75.1,72.9,29.83,SSW,213,0.0,1.0,93,0.00,,,0.03,Wunderground v.1.15,2013-09-02 02:32:00,
2013-09-01 22:33:00,75.1,72.9,29.83,SSW,213,1.0,1.0,93,0.00,,,0.03,Wunderground v.1.15,2013-09-02 02:33:00,
2013-09-01 22:36:00,75.1,72.9,29.83,SSW,213,0.0,1.0,93,0.00,,,0.03,Wunderground v.1.15,2013-09-02 02:36:00,
2013-09-01 22:37:00,75.1,72.9,29.83,SSW,213,0.0,1.0,93,0.00,,,0.03,Wunderground v.1.15,2013-09-02 02:37:00,
2013-09-01 22:38:00,75.1,72.9,29.83,SSW,213,0.0,1.0,93,0.00,,,0.03,Wunderground v.1.15,2013-09-02 02:38:00,
2013-09-01 22:40:00,75.1,72.9,29.83,SSW,213,0.0,0.0,93,0.00,,,0.03,Wunderground v.1.15,2013-09-02 02:40:00,
2013-09-01 22:41:00,75.1,72.9,29.83,SSW,213,0.0,0.0,93,0.00,,,0.03,Wunderground v.1.15,2013-09-02 02:41:00,
2013-09-01 22:42:00,75.1,72.9,29.83,SSW,213,0.0,0.0,93,0.00,,,0.03,Wunderground v.1.15,2013-09-02 02:42:00,
2013-09-01 22:43:00,75.1,72.9,29.83,SSW,213,0.0,0.0,93,0.00,,,0.03,Wunderground v.1.15,2013-09-02 02:43:00,
2013-09-01 22:46:00,75.1,72.9,29.83,SSW,213,0.0,0.0,93,0.00,,,0.03,Wunderground v.1.15,2013-09-02 02:46:00,
2013-09-01 22:47:00,74.9,72.7,29.83,SSW,213,0.0,0.0,93,0.00,,,0.03,Wunderground v.1.15,2013-09-02 02:47:00,
2013-09-01 22:48:00,74.9,72.7,29.83,SSW,213,0.0,0.0,93,0.00,,,0.03,Wunderground v.1.15,2013-09-02 02:48:00,
2013-09-01 22:49:00,74.9,72.7,29.83,SSW,213,0.0,0.0,93,0.00,,,0.03,Wunderground v.1.15,2013-09-02 02:49:00,
2013-09-01 22:51:00,74.9,72.7,29.83,SSW,213,0.0,1.0,93,0.00,,,0.03,Wunderground v.1.15,2013-09-02 02:51:00,
2013-09-01 22:52:00,74.9,72.7,29.83,SSW,213,0.0,1.0,93,0.00,,,0.03,Wunderground v.1.15,2013-09-02 02:52:00,
2013-09-01 22:53:00,74.9,72.7,29.83,SSW,213,0.0,1.0,93,0.00,,,0.03,Wunderground v.1.15,2013-09-02 02:53:00,
2013-09-01 22:54:00,74.9,72.7,29.83,SSW,213,0.0,1.0,93,0.00,,,0.03,Wunderground v.1.15,2013-09-02 02:54:00,
2013-09-01 22:57:00,74.9,72.7,29.83,SSW,213,0.0,1.0,93,0.00,,,0.03,Wunderground v.1.15,2013-09-02 02:57:00,
2013-09-01 22:58:00,74.9,72.7,29.83,SSW,213,0.0,1.0,93,0.00,,,0.03,Wunderground v.1.15,2013-09-02 02:58:00,
2013-09-01 22:59:00,74.9,72.7,29.83,SSW,213,0.0,0.0,93,0.00,,,0.03,Wunderground v.1.15,2013-09-02 02:59:00,
2013-09-01 23:03:00,74.9,72.7,29.83,SSW,213,0.0,1.0,93,0.00,,,0.03,Wunderground v.1.15,2013-09-02 03:03:00,
2013-09-01 23:04:00,74.9,72.7,29.82,SSW,213,0.0,1.0,93,0.00,,,0.03,Wunderground v.1.15,2013-09-02 03:04:00,
2013-09-01 23:08:00,74.9,72.7,29.82,SSW,213,0.0,1.0,93,0.00,,,0.03,Wunderground v.1.15,2013-09-02 03:08:00,
2013-09-01 23:09:00,74.9,72.7,29.82,SSW,213,0.0,0.0,93,0.00,,,0.03,Wunderground v.1.15,2013-09-02 03:09:00,
2013-09-01 23:10:00,74.9,72.7,29.82,SSE,159,1.0,1.0,93,0.00,,,0.03,Wunderground v.1.15,2013-09-02 03:10:00,
2013-09-01 23:11:00,74.9,72.7,29.82,SSE,159,0.0,1.0,93,0.00,,,0.03,Wunderground v.1.15,2013-09-02 03:11:00,
2013-09-01 23:13:00,74.9,72.7,29.82,SSE,159,0.0,1.0,93,0.00,,,0.03,Wunderground v.1.15,2013-09-02 03:13:00,
2013-09-01 23:14:00,74.9,72.7,29.82,SSE,159,0.0,1.0,93,0.00,,,0.03,Wunderground v.1.15,2013-09-02 03:14:00,
2013-09-01 23:16:00,74.7,72.5,29.82,SSE,159,0.0,1.0,93,0.00,,,0.03,Wunderground v.1.15,2013-09-02 03:16:00,
2013-09-01 23:17:00,74.7,72.5,29.82,SSE,159,0.0,1.0,93,0.00,,,0.03,Wunderground v.1.15,2013-09-02 03:17:00,
2013-09-01 23:18:00,74.7,72.5,29.82,SSE,159,0.0,1.0,93,0.00,,,0.03,Wunderground v.1.15,2013-09-02 03:18:00,
2013-09-01 23:19:00,74.7,72.5,29.82,SSE,159,0.0,0.0,93,0.00,,,0.03,Wunderground v.1.15,2013-09-02 03:19:00,
2013-09-01 23:21:00,74.7,72.5,29.81,SSE,159,0.0,0.0,93,0.00,,,0.03,Wunderground v.1.15,2013-09-02 03:21:00,
2013-09-01 23:23:00,74.7,72.5,29.82,SSE,159,0.0,0.0,93,0.00,,,0.03,Wunderground v.1.15,2013-09-02 03:23:00,
2013-09-01 23:24:00,74.7,72.5,29.82,SSE,159,0.0,0.0,93,0.00,,,0.03,Wunderground v.1.15,2013-09-02 03:24:00,
2013-09-01 23:26:00,74.7,72.5,29.82,SSE,159,0.0,0.0,93,0.00,,,0.03,Wunderground v.1.15,2013-09-02 03:26:00,
2013-09-01 23:28:00,74.6,72.4,29.81,SSE,159,0.0,1.0,93,0.00,,,0.03,Wunderground v.1.15,2013-09-02 03:28:00,
2013-09-01 23:29:00,74.6,72.4,29.81,SSE,159,0.0,0.0,93,0.00,,,0.03,Wunderground v.1.15,2013-09-02 03:29:00,
2013-09-01 23:30:00,74.6,72.4,29.82,SSE,159,0.0,0.0,93,0.00,,,0.03,Wunderground v.1.15,2013-09-02 03:30:00,
2013-09-01 23:33:00,74.4,72.2,29.81,SSE,159,0.0,0.0,93,0.00,,,0.03,Wunderground v.1.15,2013-09-02 03:33:00,
2013-09-01 23:34:00,74.2,72.0,29.81,SSE,159,0.0,0.0,93,0.00,,,0.03,Wunderground v.1.15,2013-09-02 03:34:00,
2013-09-01 23:35:00,74.2,72.0,29.81,SSE,159,0.0,0.0,93,0.00,,,0.03,Wunderground v.1.15,2013-09-02 03:35:00,
2013-09-01 23:36:00,74.2,72.0,29.81,SSE,159,0.0,0.0,93,0.00,,,0.03,Wunderground v.1.15,2013-09-02 03:36:00,
2013-09-01 23:38:00,74.2,72.0,29.81,SSE,159,0.0,0.0,93,0.00,,,0.03,Wunderground v.1.15,2013-09-02 03:38:00,
2013-09-01 23:39:00,74.0,71.8,29.81,SSE,159,0.0,0.0,93,0.00,,,0.03,Wunderground v.1.15,2013-09-02 03:39:00,
2013-09-01 23:40:00,74.0,71.8,29.81,SSE,159,0.0,0.0,93,0.00,,,0.03,Wunderground v.1.15,2013-09-02 03:40:00,
2013-09-01 23:41:00,74.0,71.8,29.81,SSE,159,0.0,0.0,93,0.00,,,0.03,Wunderground v.1.15,2013-09-02 03:41:00,
2013-09-01 23:43:00,74.0,71.8,29.81,SSE,159,0.0,0.0,93,0.00,,,0.03,Wunderground v.1.15,2013-09-02 03:43:00,
2013-09-01 23:44:00,74.0,71.8,29.81,SSE,159,0.0,0.0,93,0.00,,,0.03,Wunderground v.1.15,2013-09-02 03:44:00,
2013-09-01 23:45:00,74.0,71.8,29.81,SSE,159,0.0,0.0,93,0.00,,,0.03,Wunderground v.1.15,2013-09-02 03:45:00,
2013-09-01 23:46:00,74.0,71.8,29.81,SSE,159,0.0,0.0,93,0.00,,,0.03,Wunderground v.1.15,2013-09-02 03:46:00,
2013-09-01 23:49:00,73.9,71.7,29.81,SSE,159,0.0,0.0,93,0.00,,,0.03,Wunderground v.1.15,2013-09-02 03:49:00,
2013-09-01 23:50:00,74.0,71.8,29.81,SSE,159,0.0,0.0,93,0.00,,,0.03,Wunderground v.1.15,2013-09-02 03:50:00,
2013-09-01 23:52:00,74.0,71.8,29.81,SSE,159,0.0,0.0,93,0.00,,,0.03,Wunderground v.1.15,2013-09-02 03:52:00,
2013-09-01 23:54:00,74.0,72.2,29.81,SSE,159,0.0,0.0,94,0.00,,,0.03,Wunderground v.1.15,2013-09-02 03:54:00,
2013-09-01 23:55:00,74.2,72.4,29.81,SSE,159,0.0,0.0,94,0.00,,,0.03,Wunderground v.1.15,2013-09-02 03:55:00,
2013-09-01 23:56:00,74.2,72.4,29.81,SSE,159,0.0,0.0,94,0.00,,,0.03,Wunderground v.1.15,2013-09-02 03:56:00,
2013-09-01 23:57:00,74.2,72.4,29.82,SSE,159,0.0,0.0,94,0.00,,,0.03,Wunderground v.1.15,2013-09-02 03:57:00,
2013-09-01 23:58:00,74.2,72.4,29.81,SSE,159,0.0,1.0,94,0.00,,,0.03,Wunderground v.1.15,2013-09-02 03:58:00,